Time,TemperatureF,DewpointF,PressureIn,WindDirection,WindDirectionDegrees,WindSpeedMPH,WindSpeedGustMPH,Humidity,HourlyPrecipIn,Conditions,Clouds,dailyrainin,SoftwareType,DateUTC
2013-01-23 00:00:00,12.2,2.0,29.09,South,180,0.0,0.0,63,0.00,,---,0.00,VWS V14.00,2013-01-23 06:00:00,
2013-01-23 00:02:00,12.2,2.0,29.09,South,180,0.0,0.0,63,0.00,,---,0.00,VWS V14.00,2013-01-23 06:02:00,
2013-01-23 00:03:00,12.2,2.0,29.09,South,180,0.0,0.0,63,0.00,,---,0.00,VWS V14.00,2013-01-23 06:03:00,
2013-01-23 00:05:00,12.2,2.0,29.09,South,180,0.0,0.0,63,0.00,,---,0.00,VWS V14.00,2013-01-23 06:05:00,
2013-01-23 00:06:00,12.3,2.1,29.09,South,180,0.0,0.0,63,0.00,,---,0.00,VWS V14.00,2013-01-23 06:06:00,
2013-01-23 00:10:00,12.2,2.0,29.09,South,180,0.0,0.0,63,0.00,,---,0.00,VWS V14.00,2013-01-23 06:10:00,
2013-01-23 00:11:00,12.2,2.0,29.09,South,180,0.0,0.0,63,0.00,,---,0.00,VWS V14.00,2013-01-23 06:11:00,
2013-01-23 00:15:00,12.2,2.0,29.08,South,180,0.0,0.0,63,0.00,,---,0.00,VWS V14.00,2013-01-23 06:15:00,
2013-01-23 00:17:00,12.2,1.7,29.08,SSW,202,0.0,0.0,62,0.00,,---,0.00,VWS V14.00,2013-01-23 06:17:00,
2013-01-23 00:20:00,12.2,1.7,29.08,South,180,0.0,0.0,62,0.00,,---,0.00,VWS V14.00,2013-01-23 06:20:00,
2013-01-23 00:21:00,12.2,2.0,29.08,South,180,0.0,0.0,63,0.00,,---,0.00,VWS V14.00,2013-01-23 06:21:00,
2013-01-23 00:24:00,12.3,2.1,29.08,SW,225,0.0,0.0,63,0.00,,---,0.00,VWS V14.00,2013-01-23 06:24:00,
2013-01-23 00:25:00,12.3,2.1,29.08,SSW,202,0.0,0.0,63,0.00,,---,0.00,VWS V14.00,2013-01-23 06:25:00,
2013-01-23 00:29:00,12.5,2.3,29.08,SSW,202,0.0,0.0,63,0.00,,---,0.00,VWS V14.00,2013-01-23 06:29:00,
2013-01-23 00:30:00,12.5,2.3,29.08,South,180,0.0,0.0,63,0.00,,---,0.00,VWS V14.00,2013-01-23 06:30:00,
2013-01-23 00:32:00,12.5,2.3,29.08,SSW,202,0.0,0.0,63,0.00,,---,0.00,VWS V14.00,2013-01-23 06:32:00,
2013-01-23 00:36:00,12.7,2.5,29.08,SSW,202,0.0,0.0,63,0.00,,---,0.00,VWS V14.00,2013-01-23 06:36:00,
2013-01-23 00:38:00,12.7,2.5,29.08,SSW,202,0.0,0.0,63,0.00,,---,0.00,VWS V14.00,2013-01-23 06:38:00,
2013-01-23 00:39:00,12.7,2.5,29.08,South,180,0.0,0.0,63,0.00,,---,0.00,VWS V14.00,2013-01-23 06:39:00,
2013-01-23 00:43:00,12.5,2.3,29.08,SW,225,0.0,0.0,63,0.00,,---,0.00,VWS V14.00,2013-01-23 06:43:00,
2013-01-23 00:44:00,12.5,2.3,29.07,South,180,0.0,0.0,63,0.00,,---,0.00,VWS V14.00,2013-01-23 06:44:00,
2013-01-23 00:45:00,12.3,2.1,29.07,South,180,0.0,0.0,63,0.00,,---,0.00,VWS V14.00,2013-01-23 06:45:00,
2013-01-23 00:48:00,12.2,2.0,29.07,South,180,0.0,0.0,63,0.00,,---,0.00,VWS V14.00,2013-01-23 06:48:00,
2013-01-23 00:51:00,12.2,2.0,29.07,SW,225,0.0,0.0,63,0.00,,---,0.00,VWS V14.00,2013-01-23 06:51:00,
2013-01-23 00:53:00,12.0,2.2,29.07,SW,225,0.0,0.0,64,0.00,,---,0.00,VWS V14.00,2013-01-23 06:53:00,
2013-01-23 00:56:00,12.0,2.2,29.07,SSW,202,0.0,0.0,64,0.00,,---,0.00,VWS V14.00,2013-01-23 06:56:00,
2013-01-23 00:57:00,12.0,2.2,29.07,South,180,0.0,0.0,64,0.00,,---,0.00,VWS V14.00,2013-01-23 06:57:00,
2013-01-23 00:58:00,12.0,2.2,29.07,SSW,202,0.0,0.0,64,0.00,,---,0.00,VWS V14.00,2013-01-23 06:58:00,
2013-01-23 01:00:00,12.0,2.2,29.07,South,180,0.0,0.0,64,0.00,,---,0.00,VWS V14.00,2013-01-23 07:00:00,
2013-01-23 01:03:00,12.0,2.2,29.07,SSW,202,0.0,0.0,64,0.00,,---,0.00,VWS V14.00,2013-01-23 07:03:00,
2013-01-23 01:06:00,11.8,2.3,29.07,South,180,0.0,0.0,65,0.00,,---,0.00,VWS V14.00,2013-01-23 07:06:00,
2013-01-23 01:07:00,11.8,2.3,29.07,South,180,0.0,0.0,65,0.00,,---,0.00,VWS V14.00,2013-01-23 07:07:00,
2013-01-23 01:11:00,11.8,2.3,29.07,South,180,0.0,0.0,65,0.00,,---,0.00,VWS V14.00,2013-01-23 07:11:00,
2013-01-23 01:12:00,11.8,2.3,29.07,South,180,0.0,0.0,65,0.00,,---,0.00,VWS V14.00,2013-01-23 07:12:00,
2013-01-23 01:13:00,11.8,2.3,29.06,South,180,0.0,0.0,65,0.00,,---,0.00,VWS V14.00,2013-01-23 07:13:00,
2013-01-23 01:16:00,11.8,2.3,29.06,South,180,0.0,0.0,65,0.00,,---,0.00,VWS V14.00,2013-01-23 07:16:00,
2013-01-23 01:20:00,11.8,2.7,29.06,South,180,0.0,0.0,66,0.00,,---,0.00,VWS V14.00,2013-01-23 07:20:00,
2013-01-23 01:21:00,11.8,2.7,29.07,South,180,0.0,0.0,66,0.00,,---,0.00,VWS V14.00,2013-01-23 07:21:00,
2013-01-23 01:26:00,11.8,2.7,29.07,SSW,202,0.0,0.0,66,0.00,,---,0.00,VWS V14.00,2013-01-23 07:26:00,
2013-01-23 01:27:00,11.8,2.7,29.06,South,180,0.0,0.0,66,0.00,,---,0.00,VWS V14.00,2013-01-23 07:27:00,
2013-01-23 01:29:00,11.8,2.7,29.06,South,180,0.0,0.0,66,0.00,,---,0.00,VWS V14.00,2013-01-23 07:29:00,
2013-01-23 01:32:00,12.0,3.2,29.06,South,180,0.0,0.0,67,0.00,,---,0.00,VWS V14.00,2013-01-23 07:32:00,
2013-01-23 01:36:00,12.0,3.2,29.06,SSE,158,0.0,0.0,67,0.00,,---,0.00,VWS V14.00,2013-01-23 07:36:00,
2013-01-23 01:38:00,12.0,3.2,29.06,SSW,202,0.0,0.0,67,0.00,,---,0.00,VWS V14.00,2013-01-23 07:38:00,
2013-01-23 01:39:00,12.0,3.2,29.06,SSW,202,0.0,0.0,67,0.00,,---,0.00,VWS V14.00,2013-01-23 07:39:00,
2013-01-23 01:43:00,12.0,3.2,29.06,South,180,0.0,0.0,67,0.00,,---,0.00,VWS V14.00,2013-01-23 07:43:00,
2013-01-23 01:48:00,12.0,3.2,29.06,SSW,202,0.0,0.0,67,0.00,,---,0.00,VWS V14.00,2013-01-23 07:48:00,
2013-01-23 01:50:00,12.0,3.2,29.06,South,180,0.0,0.0,67,0.00,,---,0.00,VWS V14.00,2013-01-23 07:50:00,
2013-01-23 01:51:00,12.0,3.2,29.06,South,180,0.0,0.0,67,0.00,,---,0.00,VWS V14.00,2013-01-23 07:51:00,
2013-01-23 01:53:00,12.0,3.2,29.06,South,180,0.0,0.0,67,0.00,,---,0.00,VWS V14.00,2013-01-23 07:53:00,
2013-01-23 01:59:00,12.0,3.2,29.06,South,180,0.0,0.0,67,0.00,,---,0.00,VWS V14.00,2013-01-23 07:59:00,
2013-01-23 02:00:00,12.0,3.2,29.06,South,180,0.0,0.0,67,0.00,,---,0.00,VWS V14.00,2013-01-23 08:00:00,
2013-01-23 02:04:00,12.0,3.2,29.06,SSE,158,0.0,0.0,67,0.00,,---,0.00,VWS V14.00,2013-01-23 08:04:00,
2013-01-23 02:06:00,12.0,3.2,29.06,South,180,0.0,0.0,67,0.00,,---,0.00,VWS V14.00,2013-01-23 08:06:00,
2013-01-23 02:09:00,12.0,3.5,29.06,South,180,0.0,0.0,68,0.00,,---,0.00,VWS V14.00,2013-01-23 08:09:00,
2013-01-23 02:13:00,12.0,3.5,29.06,SSE,158,0.0,0.0,68,0.00,,---,0.00,VWS V14.00,2013-01-23 08:13:00,
2013-01-23 02:14:00,12.2,3.7,29.06,SSE,158,0.0,0.0,68,0.00,,---,0.00,VWS V14.00,2013-01-23 08:14:00,
2013-01-23 02:16:00,12.2,3.7,29.06,South,180,0.0,0.0,68,0.00,,---,0.00,VWS V14.00,2013-01-23 08:16:00,
2013-01-23 02:18:00,12.0,3.5,29.06,South,180,0.0,0.0,68,0.00,,---,0.00,VWS V14.00,2013-01-23 08:18:00,
2013-01-23 02:19:00,12.0,3.5,29.06,South,180,0.0,0.0,68,0.00,,---,0.00,VWS V14.00,2013-01-23 08:19:00,
2013-01-23 02:21:00,12.2,3.7,29.06,SSE,158,0.0,0.0,68,0.00,,---,0.00,VWS V14.00,2013-01-23 08:21:00,
2013-01-23 02:24:00,12.2,3.7,29.06,South,180,0.0,0.0,68,0.00,,---,0.00,VWS V14.00,2013-01-23 08:24:00,
2013-01-23 02:26:00,12.2,3.7,29.06,South,180,0.0,0.0,68,0.00,,---,0.00,VWS V14.00,2013-01-23 08:26:00,
2013-01-23 02:29:00,12.2,3.7,29.06,SSW,202,0.0,0.0,68,0.00,,---,0.00,VWS V14.00,2013-01-23 08:29:00,
2013-01-23 02:32:00,12.3,3.8,29.06,South,180,0.0,0.0,68,0.00,,---,0.00,VWS V14.00,2013-01-23 08:32:00,
2013-01-23 02:35:00,12.3,3.8,29.06,SSW,202,0.0,0.0,68,0.00,,---,0.00,VWS V14.00,2013-01-23 08:35:00,
2013-01-23 02:37:00,12.3,3.8,29.05,South,180,0.0,0.0,68,0.00,,---,0.00,VWS V14.00,2013-01-23 08:37:00,
2013-01-23 02:41:00,12.3,3.8,29.06,South,180,0.0,0.0,68,0.00,,---,0.00,VWS V14.00,2013-01-23 08:41:00,
2013-01-23 02:42:00,12.3,3.8,29.06,South,180,0.0,0.0,68,0.00,,---,0.00,VWS V14.00,2013-01-23 08:42:00,
2013-01-23 02:47:00,12.3,3.8,29.05,South,180,0.0,0.0,68,0.00,,---,0.00,VWS V14.00,2013-01-23 08:47:00,
2013-01-23 02:50:00,12.3,3.8,29.05,SSE,158,0.0,0.0,68,0.00,,---,0.00,VWS V14.00,2013-01-23 08:50:00,
2013-01-23 02:54:00,12.3,3.8,29.05,SSE,158,0.0,0.0,68,0.00,,---,0.00,VWS V14.00,2013-01-23 08:54:00,
2013-01-23 02:55:00,12.5,4.0,29.05,SSE,158,0.0,0.0,68,0.00,,---,0.00,VWS V14.00,2013-01-23 08:55:00,
2013-01-23 02:56:00,12.5,4.0,29.05,SSW,202,0.0,0.0,68,0.00,,---,0.00,VWS V14.00,2013-01-23 08:56:00,
2013-01-23 03:00:00,12.5,4.0,29.05,SW,225,0.0,0.0,68,0.00,,---,0.00,VWS V14.00,2013-01-23 09:00:00,
2013-01-23 03:02:00,12.5,4.0,29.05,SSE,158,0.0,0.0,68,0.00,,---,0.00,VWS V14.00,2013-01-23 09:02:00,
2013-01-23 03:05:00,12.5,4.0,29.05,South,180,0.0,0.0,68,0.00,,---,0.00,VWS V14.00,2013-01-23 09:05:00,
2013-01-23 03:06:00,12.5,4.0,29.05,SSE,158,0.0,0.0,68,0.00,,---,0.00,VWS V14.00,2013-01-23 09:06:00,
2013-01-23 03:07:00,12.5,4.0,29.05,South,180,0.0,0.0,68,0.00,,---,0.00,VWS V14.00,2013-01-23 09:07:00,
2013-01-23 03:11:00,12.3,4.1,29.05,SSE,158,0.0,0.0,69,0.00,,---,0.00,VWS V14.00,2013-01-23 09:11:00,
2013-01-23 03:12:00,12.5,4.3,29.05,SSE,158,0.0,0.0,69,0.00,,---,0.00,VWS V14.00,2013-01-23 09:12:00,
2013-01-23 03:17:00,12.3,4.1,29.05,South,180,0.0,0.0,69,0.00,,---,0.00,VWS V14.00,2013-01-23 09:17:00,
2013-01-23 03:21:00,12.3,4.1,29.04,South,180,0.0,0.0,69,0.00,,---,0.00,VWS V14.00,2013-01-23 09:21:00,
2013-01-23 03:22:00,12.3,4.1,29.04,South,180,0.0,0.0,69,0.00,,---,0.00,VWS V14.00,2013-01-23 09:22:00,
2013-01-23 03:23:00,12.3,4.1,29.04,SSW,202,0.0,0.0,69,0.00,,---,0.00,VWS V14.00,2013-01-23 09:23:00,
2013-01-23 03:27:00,12.3,4.1,29.04,South,180,0.0,0.0,69,0.00,,---,0.00,VWS V14.00,2013-01-23 09:27:00,
2013-01-23 03:29:00,12.3,4.1,29.04,South,180,0.0,0.0,69,0.00,,---,0.00,VWS V14.00,2013-01-23 09:29:00,
2013-01-23 03:31:00,12.5,4.3,29.04,SSW,202,0.0,0.0,69,0.00,,---,0.00,VWS V14.00,2013-01-23 09:31:00,
2013-01-23 03:32:00,12.3,4.1,29.03,South,180,0.0,0.0,69,0.00,,---,0.00,VWS V14.00,2013-01-23 09:32:00,
2013-01-23 03:36:00,12.3,4.1,29.03,South,180,0.0,0.0,69,0.00,,---,0.00,VWS V14.00,2013-01-23 09:36:00,
2013-01-23 03:39:00,12.3,4.1,29.03,South,180,0.0,0.0,69,0.00,,---,0.00,VWS V14.00,2013-01-23 09:39:00,
2013-01-23 03:42:00,12.3,4.1,29.03,SSE,158,0.0,0.0,69,0.00,,---,0.00,VWS V14.00,2013-01-23 09:42:00,
2013-01-23 03:44:00,12.3,4.1,29.03,SSE,158,0.0,0.0,69,0.00,,---,0.00,VWS V14.00,2013-01-23 09:44:00,
2013-01-23 03:48:00,12.2,4.3,29.03,South,180,0.0,0.0,70,0.00,,---,0.00,VWS V14.00,2013-01-23 09:48:00,
2013-01-23 03:49:00,12.2,4.3,29.03,SSE,158,0.0,0.0,70,0.00,,---,0.00,VWS V14.00,2013-01-23 09:49:00,
2013-01-23 03:54:00,12.0,4.1,29.03,SSE,158,0.0,0.0,70,0.00,,---,0.00,VWS V14.00,2013-01-23 09:54:00,
2013-01-23 03:56:00,12.0,4.1,29.02,SSE,158,0.0,0.0,70,0.00,,---,0.00,VWS V14.00,2013-01-23 09:56:00,
2013-01-23 04:00:00,12.0,4.1,29.03,SSE,158,0.0,0.0,70,0.00,,---,0.00,VWS V14.00,2013-01-23 10:00:00,
2013-01-23 04:01:00,12.0,4.1,29.02,South,180,0.0,0.0,70,0.00,,---,0.00,VWS V14.00,2013-01-23 10:01:00,
2013-01-23 04:04:00,12.0,4.1,29.02,SSE,158,0.0,0.0,70,0.00,,---,0.00,VWS V14.00,2013-01-23 10:04:00,
2013-01-23 04:05:00,12.0,4.1,29.02,SSE,158,0.0,0.0,70,0.00,,---,0.00,VWS V14.00,2013-01-23 10:05:00,
2013-01-23 04:10:00,12.0,4.1,29.02,SSE,158,0.0,0.0,70,0.00,,---,0.00,VWS V14.00,2013-01-23 10:10:00,
2013-01-23 04:11:00,12.0,4.1,29.02,SSE,158,0.0,0.0,70,0.00,,---,0.00,VWS V14.00,2013-01-23 10:11:00,
2013-01-23 04:15:00,12.0,4.4,29.02,SSE,158,0.0,0.0,71,0.00,,---,0.00,VWS V14.00,2013-01-23 10:15:00,
2013-01-23 04:16:00,12.0,4.4,29.02,SSE,158,0.0,0.0,71,0.00,,---,0.00,VWS V14.00,2013-01-23 10:16:00,
2013-01-23 04:17:00,12.0,4.4,29.02,South,180,0.0,0.0,71,0.00,,---,0.00,VWS V14.00,2013-01-23 10:17:00,
2013-01-23 04:20:00,12.0,4.4,29.02,SSE,158,0.0,0.0,71,0.00,,---,0.00,VWS V14.00,2013-01-23 10:20:00,
2013-01-23 04:24:00,12.2,4.6,29.02,SSE,158,0.0,0.0,71,0.00,,---,0.00,VWS V14.00,2013-01-23 10:24:00,
2013-01-23 04:27:00,12.2,4.6,29.01,South,180,0.0,0.0,71,0.00,,---,0.00,VWS V14.00,2013-01-23 10:27:00,
2013-01-23 04:29:00,12.2,4.6,29.01,SSE,158,0.0,0.0,71,0.00,,---,0.00,VWS V14.00,2013-01-23 10:29:00,
2013-01-23 04:34:00,12.2,4.6,29.01,SSE,158,0.0,0.0,71,0.00,,---,0.00,VWS V14.00,2013-01-23 10:34:00,
2013-01-23 04:35:00,12.2,4.6,29.01,SSE,158,0.0,0.0,71,0.00,,---,0.00,VWS V14.00,2013-01-23 10:35:00,
2013-01-23 04:39:00,12.3,4.7,29.00,South,180,0.0,0.0,71,0.00,,---,0.00,VWS V14.00,2013-01-23 10:39:00,
2013-01-23 04:40:00,12.3,4.7,29.00,SSE,158,0.0,0.0,71,0.00,,---,0.00,VWS V14.00,2013-01-23 10:40:00,
2013-01-23 04:44:00,12.3,4.7,29.00,SSE,158,0.0,0.0,71,0.00,,---,0.00,VWS V14.00,2013-01-23 10:44:00,
2013-01-23 04:45:00,12.3,4.7,29.00,South,180,0.0,0.0,71,0.00,,---,0.00,VWS V14.00,2013-01-23 10:45:00,
2013-01-23 04:49:00,12.5,4.9,29.00,South,180,0.0,0.0,71,0.00,,---,0.00,VWS V14.00,2013-01-23 10:49:00,
2013-01-23 04:51:00,12.5,4.9,29.00,SSE,158,0.0,0.0,71,0.00,,---,0.00,VWS V14.00,2013-01-23 10:51:00,
2013-01-23 04:54:00,12.7,5.4,29.00,South,180,0.0,0.0,72,0.00,,---,0.00,VWS V14.00,2013-01-23 10:54:00,
2013-01-23 04:55:00,12.7,5.4,29.00,South,180,0.0,0.0,72,0.00,,---,0.00,VWS V14.00,2013-01-23 10:55:00,
2013-01-23 04:56:00,12.7,5.4,29.00,South,180,0.0,0.0,72,0.00,,---,0.00,VWS V14.00,2013-01-23 10:56:00,
2013-01-23 05:00:00,12.7,5.4,29.00,SSE,158,0.0,0.0,72,0.00,,---,0.00,VWS V14.00,2013-01-23 11:00:00,
2013-01-23 05:01:00,12.7,5.4,29.00,South,180,0.0,0.0,72,0.00,,---,0.00,VWS V14.00,2013-01-23 11:01:00,
2013-01-23 05:05:00,12.9,5.6,29.00,South,180,0.0,0.0,72,0.00,,---,0.00,VWS V14.00,2013-01-23 11:05:00,
2013-01-23 05:07:00,12.9,5.6,29.00,South,180,0.0,0.0,72,0.00,,---,0.00,VWS V14.00,2013-01-23 11:07:00,
2013-01-23 05:08:00,12.9,5.6,29.00,South,180,0.0,0.0,72,0.00,,---,0.00,VWS V14.00,2013-01-23 11:08:00,
2013-01-23 05:09:00,12.9,5.6,29.00,SSE,158,0.0,0.0,72,0.00,,---,0.00,VWS V14.00,2013-01-23 11:09:00,
2013-01-23 05:10:00,12.9,5.6,29.00,South,180,0.0,0.0,72,0.00,,---,0.00,VWS V14.00,2013-01-23 11:10:00,
2013-01-23 05:12:00,12.9,5.6,29.00,South,180,0.0,0.0,72,0.00,,---,0.00,VWS V14.00,2013-01-23 11:12:00,
2013-01-23 05:16:00,13.2,5.9,29.00,South,180,0.0,0.0,72,0.00,,---,0.00,VWS V14.00,2013-01-23 11:16:00,
2013-01-23 05:17:00,13.2,5.9,29.00,South,180,0.0,0.0,72,0.00,,---,0.00,VWS V14.00,2013-01-23 11:17:00,
2013-01-23 05:19:00,13.2,5.9,29.00,South,180,0.0,0.0,72,0.00,,---,0.00,VWS V14.00,2013-01-23 11:19:00,
2013-01-23 05:21:00,13.2,5.9,29.00,South,180,0.0,0.0,72,0.00,,---,0.00,VWS V14.00,2013-01-23 11:21:00,
2013-01-23 05:25:00,13.2,5.9,29.00,South,180,0.0,0.0,72,0.00,,---,0.00,VWS V14.00,2013-01-23 11:25:00,
2013-01-23 05:26:00,13.2,5.9,29.00,SSE,158,0.0,0.0,72,0.00,,---,0.00,VWS V14.00,2013-01-23 11:26:00,
2013-01-23 05:29:00,13.6,6.3,29.00,South,180,0.0,0.0,72,0.00,,---,0.00,VWS V14.00,2013-01-23 11:29:00,
2013-01-23 05:30:00,13.6,6.3,29.00,SSE,158,0.0,0.0,72,0.00,,---,0.00,VWS V14.00,2013-01-23 11:30:00,
2013-01-23 05:35:00,13.6,6.0,29.00,South,180,0.0,0.0,71,0.00,,---,0.00,VWS V14.00,2013-01-23 11:35:00,
2013-01-23 05:36:00,13.6,6.0,29.00,South,180,0.0,0.0,71,0.00,,---,0.00,VWS V14.00,2013-01-23 11:36:00,
2013-01-23 05:38:00,13.6,6.0,29.01,South,180,0.0,0.0,71,0.00,,---,0.00,VWS V14.00,2013-01-23 11:38:00,
2013-01-23 05:40:00,13.6,6.0,29.01,SSE,158,0.0,0.0,71,0.00,,---,0.00,VWS V14.00,2013-01-23 11:40:00,
2013-01-23 05:43:00,13.8,6.2,29.01,South,180,0.0,0.0,71,0.00,,---,0.00,VWS V14.00,2013-01-23 11:43:00,
2013-01-23 05:45:00,13.8,6.2,29.01,South,180,0.0,0.0,71,0.00,,---,0.00,VWS V14.00,2013-01-23 11:45:00,
2013-01-23 05:49:00,13.8,6.2,29.01,South,180,0.0,0.0,71,0.00,,---,0.00,VWS V14.00,2013-01-23 11:49:00,
2013-01-23 05:50:00,13.8,6.2,29.01,South,180,0.0,0.0,71,0.00,,---,0.00,VWS V14.00,2013-01-23 11:50:00,
2013-01-23 05:51:00,13.8,6.2,29.01,South,180,0.0,0.0,71,0.00,,---,0.00,VWS V14.00,2013-01-23 11:51:00,
2013-01-23 05:54:00,13.8,6.2,29.01,South,180,0.0,0.0,71,0.00,,---,0.00,VWS V14.00,2013-01-23 11:54:00,
2013-01-23 05:55:00,13.8,6.2,29.00,South,180,0.0,0.0,71,0.00,,---,0.00,VWS V14.00,2013-01-23 11:55:00,
2013-01-23 05:57:00,13.8,6.2,29.01,South,180,0.0,0.0,71,0.00,,---,0.00,VWS V14.00,2013-01-23 11:57:00,
2013-01-23 06:00:00,13.8,6.2,29.00,South,180,0.0,0.0,71,0.00,,---,0.00,VWS V14.00,2013-01-23 12:00:00,
2013-01-23 06:02:00,13.8,6.2,29.00,South,180,0.0,0.0,71,0.00,,---,0.00,VWS V14.00,2013-01-23 12:02:00,
2013-01-23 06:05:00,14.0,6.3,29.01,SSW,202,0.0,0.0,71,0.00,,---,0.00,VWS V14.00,2013-01-23 12:05:00,
2013-01-23 06:09:00,14.1,6.4,29.01,South,180,0.0,0.0,71,0.00,,---,0.00,VWS V14.00,2013-01-23 12:09:00,
2013-01-23 06:10:00,14.1,6.4,29.01,South,180,0.0,0.0,71,0.00,,---,0.00,VWS V14.00,2013-01-23 12:10:00,
2013-01-23 06:14:00,14.1,6.4,29.01,South,180,0.0,0.0,71,0.00,,---,0.00,VWS V14.00,2013-01-23 12:14:00,
2013-01-23 06:15:00,14.1,6.4,29.00,South,180,0.0,0.0,71,0.00,,---,0.00,VWS V14.00,2013-01-23 12:15:00,
2013-01-23 06:16:00,14.1,6.4,29.00,SSW,202,0.0,0.0,71,0.00,,---,0.00,VWS V14.00,2013-01-23 12:16:00,
2013-01-23 06:20:00,14.1,6.4,29.00,South,180,0.0,0.0,71,0.00,,---,0.00,VWS V14.00,2013-01-23 12:20:00,
2013-01-23 06:21:00,14.1,6.4,29.00,South,180,0.0,0.0,71,0.00,,---,0.00,VWS V14.00,2013-01-23 12:21:00,
2013-01-23 06:22:00,14.1,6.4,29.00,South,180,0.0,0.0,71,0.00,,---,0.00,VWS V14.00,2013-01-23 12:22:00,
2013-01-23 06:26:00,14.1,6.4,29.01,South,180,0.0,0.0,71,0.00,,---,0.00,VWS V14.00,2013-01-23 12:26:00,
2013-01-23 06:27:00,14.1,6.4,29.01,South,180,0.0,0.0,71,0.00,,---,0.00,VWS V14.00,2013-01-23 12:27:00,
2013-01-23 06:28:00,14.1,6.4,29.01,South,180,0.0,0.0,71,0.00,,---,0.00,VWS V14.00,2013-01-23 12:28:00,
2013-01-23 06:32:00,14.1,6.4,29.01,South,180,0.0,0.0,71,0.00,,---,0.00,VWS V14.00,2013-01-23 12:32:00,
2013-01-23 06:33:00,14.1,6.4,29.01,South,180,0.0,0.0,71,0.00,,---,0.00,VWS V14.00,2013-01-23 12:33:00,
2013-01-23 06:37:00,14.1,6.4,29.00,SSE,158,0.0,0.0,71,0.00,,---,0.00,VWS V14.00,2013-01-23 12:37:00,
2013-01-23 06:40:00,14.1,6.4,29.00,South,180,0.0,0.0,71,0.00,,---,0.00,VWS V14.00,2013-01-23 12:40:00,
2013-01-23 06:41:00,14.1,6.1,29.00,South,180,0.0,0.0,70,0.00,,---,0.00,VWS V14.00,2013-01-23 12:41:00,
2013-01-23 06:42:00,14.1,6.1,29.00,SSW,202,0.0,0.0,70,0.00,,---,0.00,VWS V14.00,2013-01-23 12:42:00,
2013-01-23 06:45:00,14.1,6.1,29.00,South,180,0.0,0.0,70,0.00,,---,0.00,VWS V14.00,2013-01-23 12:45:00,
2013-01-23 06:48:00,14.1,6.1,29.00,South,180,0.0,0.0,70,0.00,,---,0.00,VWS V14.00,2013-01-23 12:48:00,
2013-01-23 06:50:00,14.3,6.3,29.00,South,180,0.0,0.0,70,0.00,,---,0.00,VWS V14.00,2013-01-23 12:50:00,
2013-01-23 06:53:00,14.3,6.6,29.00,South,180,0.0,0.0,71,0.00,,---,0.00,VWS V14.00,2013-01-23 12:53:00,
2013-01-23 06:55:00,14.3,6.3,29.00,South,180,0.0,0.0,70,0.00,,---,0.00,VWS V14.00,2013-01-23 12:55:00,
2013-01-23 06:56:00,14.3,6.3,29.00,South,180,0.0,0.0,70,0.00,,---,0.00,VWS V14.00,2013-01-23 12:56:00,
2013-01-23 06:58:00,14.3,6.3,29.00,SSW,202,0.0,0.0,70,0.00,,---,0.00,VWS V14.00,2013-01-23 12:58:00,
2013-01-23 07:02:00,14.5,6.8,28.99,South,180,0.0,0.0,71,0.00,,---,0.00,VWS V14.00,2013-01-23 13:02:00,
2013-01-23 07:04:00,14.5,6.8,28.99,South,180,0.0,0.0,71,0.00,,---,0.00,VWS V14.00,2013-01-23 13:04:00,
2013-01-23 07:09:00,14.5,6.8,29.00,South,180,0.0,0.0,71,0.00,,---,0.00,VWS V14.00,2013-01-23 13:09:00,
2013-01-23 07:10:00,14.7,7.0,28.99,South,180,0.0,0.0,71,0.00,,---,0.00,VWS V14.00,2013-01-23 13:10:00,
2013-01-23 07:12:00,14.7,6.7,28.99,South,180,0.0,0.0,70,0.00,,---,0.00,VWS V14.00,2013-01-23 13:12:00,
2013-01-23 07:15:00,14.7,7.0,28.99,South,180,0.0,0.0,71,0.00,,---,0.00,VWS V14.00,2013-01-23 13:15:00,
2013-01-23 07:17:00,14.7,7.0,28.99,South,180,0.0,0.0,71,0.00,,---,0.00,VWS V14.00,2013-01-23 13:17:00,
2013-01-23 07:18:00,14.7,7.0,28.99,South,180,0.0,0.0,71,0.00,,---,0.00,VWS V14.00,2013-01-23 13:18:00,
2013-01-23 07:20:00,14.7,7.0,28.99,South,180,0.0,0.0,71,0.00,,---,0.00,VWS V14.00,2013-01-23 13:20:00,
2013-01-23 07:23:00,14.7,7.0,28.99,SSW,202,0.0,0.0,71,0.00,,---,0.00,VWS V14.00,2013-01-23 13:23:00,
2013-01-23 07:25:00,14.7,7.0,28.99,SSW,202,0.0,0.0,71,0.00,,---,0.00,VWS V14.00,2013-01-23 13:25:00,
2013-01-23 07:29:00,14.9,7.2,28.99,South,180,0.0,0.0,71,0.00,,---,0.00,VWS V14.00,2013-01-23 13:29:00,
2013-01-23 07:31:00,14.9,7.2,28.99,South,180,0.0,0.0,71,0.00,,---,0.00,VWS V14.00,2013-01-23 13:31:00,
2013-01-23 07:35:00,15.0,7.3,28.99,South,180,0.0,0.0,71,0.00,,---,0.00,VWS V14.00,2013-01-23 13:35:00,
2013-01-23 07:37:00,15.0,7.3,28.99,South,180,0.0,0.0,71,0.00,,---,0.00,VWS V14.00,2013-01-23 13:37:00,
2013-01-23 07:40:00,15.0,7.3,28.99,South,180,0.0,0.0,71,0.00,,---,0.00,VWS V14.00,2013-01-23 13:40:00,
2013-01-23 07:41:00,15.0,7.3,28.99,South,180,0.0,0.0,71,0.00,,---,0.00,VWS V14.00,2013-01-23 13:41:00,
2013-01-23 07:43:00,15.2,7.5,29.00,SSW,202,0.0,0.0,71,0.00,,---,0.00,VWS V14.00,2013-01-23 13:43:00,
2013-01-23 07:47:00,15.4,7.7,28.99,SSW,202,0.0,0.0,71,0.00,,---,0.00,VWS V14.00,2013-01-23 13:47:00,
2013-01-23 07:48:00,15.4,7.7,28.99,South,180,0.0,0.0,71,0.00,,---,0.00,VWS V14.00,2013-01-23 13:48:00,
2013-01-23 07:49:00,15.4,7.7,28.99,South,180,0.0,0.0,71,0.00,,---,0.00,VWS V14.00,2013-01-23 13:49:00,
2013-01-23 07:52:00,15.4,7.4,28.99,SSW,202,0.0,0.0,70,0.00,,---,0.00,VWS V14.00,2013-01-23 13:52:00,
2013-01-23 07:54:00,15.4,7.4,28.99,SSW,202,0.0,0.0,70,0.00,,---,0.00,VWS V14.00,2013-01-23 13:54:00,
2013-01-23 07:55:00,15.4,7.4,28.99,SSW,202,0.0,0.0,70,0.00,,---,0.00,VWS V14.00,2013-01-23 13:55:00,
2013-01-23 07:59:00,15.4,7.4,28.99,SSW,202,0.0,0.0,70,0.00,,---,0.00,VWS V14.00,2013-01-23 13:59:00,
2013-01-23 08:01:00,15.6,7.6,28.99,SSW,202,0.0,0.0,70,0.00,,---,0.00,VWS V14.00,2013-01-23 14:01:00,
2013-01-23 08:03:00,15.6,7.6,28.99,SSW,202,0.0,0.0,70,0.00,,---,0.00,VWS V14.00,2013-01-23 14:03:00,
2013-01-23 08:04:00,15.6,7.6,28.99,SSW,202,0.0,0.0,70,0.00,,---,0.00,VWS V14.00,2013-01-23 14:04:00,
2013-01-23 08:07:00,15.6,7.6,28.99,SSW,202,0.0,0.0,70,0.00,,---,0.00,VWS V14.00,2013-01-23 14:07:00,
2013-01-23 08:09:00,15.6,7.9,28.99,SW,225,0.0,0.0,71,0.00,,---,0.00,VWS V14.00,2013-01-23 14:09:00,
2013-01-23 08:10:00,15.6,7.9,28.99,SW,225,0.0,0.0,71,0.00,,---,0.00,VWS V14.00,2013-01-23 14:10:00,
2013-01-23 08:12:00,15.6,7.9,28.99,SW,225,0.0,0.0,71,0.00,,---,0.00,VWS V14.00,2013-01-23 14:12:00,
2013-01-23 08:17:00,15.9,8.2,28.99,SSW,202,0.0,0.0,71,0.00,,---,0.00,VWS V14.00,2013-01-23 14:17:00,
2013-01-23 08:18:00,15.8,8.1,28.99,SSW,202,0.0,0.0,71,0.00,,---,0.00,VWS V14.00,2013-01-23 14:18:00,
2013-01-23 08:20:00,15.9,8.2,28.99,SSW,202,0.0,0.0,71,0.00,,---,0.00,VWS V14.00,2013-01-23 14:20:00,
2013-01-23 08:23:00,15.9,8.2,28.99,SSW,202,0.0,0.0,71,0.00,,---,0.00,VWS V14.00,2013-01-23 14:23:00,
2013-01-23 08:25:00,16.1,8.4,29.00,SSW,202,0.0,0.0,71,0.00,,---,0.00,VWS V14.00,2013-01-23 14:25:00,
2013-01-23 08:28:00,16.3,8.6,28.99,SW,225,0.0,0.0,71,0.00,,---,0.00,VWS V14.00,2013-01-23 14:28:00,
2013-01-23 08:30:00,16.3,8.6,28.99,SW,225,0.0,0.0,71,0.00,,---,0.00,VWS V14.00,2013-01-23 14:30:00,
2013-01-23 08:31:00,16.3,8.6,28.99,SW,225,0.0,0.0,71,0.00,,---,0.00,VWS V14.00,2013-01-23 14:31:00,
2013-01-23 08:33:00,16.5,8.8,29.00,SW,225,0.0,0.0,71,0.00,,---,0.00,VWS V14.00,2013-01-23 14:33:00,
2013-01-23 08:34:00,16.5,8.4,29.00,WSW,248,0.0,0.0,70,0.00,,---,0.00,VWS V14.00,2013-01-23 14:34:00,
2013-01-23 08:38:00,16.5,8.4,29.00,SSW,202,0.0,0.0,70,0.00,,---,0.00,VWS V14.00,2013-01-23 14:38:00,
2013-01-23 08:39:00,16.5,8.4,28.99,SW,225,0.0,0.0,70,0.00,,---,0.00,VWS V14.00,2013-01-23 14:39:00,
2013-01-23 08:40:00,16.5,8.4,29.00,SW,225,0.0,0.0,70,0.00,,---,0.00,VWS V14.00,2013-01-23 14:40:00,
2013-01-23 08:43:00,16.7,8.6,29.00,SW,225,0.0,0.0,70,0.00,,---,0.00,VWS V14.00,2013-01-23 14:43:00,
2013-01-23 08:45:00,16.7,8.6,29.00,SW,225,0.0,0.0,70,0.00,,---,0.00,VWS V14.00,2013-01-23 14:45:00,
2013-01-23 08:48:00,16.8,8.7,29.00,West,270,0.0,0.0,70,0.00,,---,0.00,VWS V14.00,2013-01-23 14:48:00,
2013-01-23 08:50:00,16.7,8.6,29.00,SW,225,0.0,0.0,70,0.00,,---,0.00,VWS V14.00,2013-01-23 14:50:00,
2013-01-23 08:51:00,16.7,8.6,29.00,WSW,248,0.0,0.0,70,0.00,,---,0.00,VWS V14.00,2013-01-23 14:51:00,
2013-01-23 08:53:00,16.8,8.7,29.00,West,270,0.0,0.0,70,0.00,,---,0.00,VWS V14.00,2013-01-23 14:53:00,
2013-01-23 08:56:00,16.8,8.7,29.00,WSW,248,0.0,0.0,70,0.00,,---,0.00,VWS V14.00,2013-01-23 14:56:00,
2013-01-23 08:57:00,16.8,8.7,29.00,WSW,248,0.0,0.0,70,0.00,,---,0.00,VWS V14.00,2013-01-23 14:57:00,
2013-01-23 08:58:00,16.8,8.7,29.00,SW,225,0.0,0.0,70,0.00,,---,0.00,VWS V14.00,2013-01-23 14:58:00,
2013-01-23 09:02:00,16.8,8.4,29.00,West,270,0.0,0.0,69,0.00,,---,0.00,VWS V14.00,2013-01-23 15:02:00,
2013-01-23 09:03:00,17.2,9.1,29.00,WSW,248,0.0,0.0,70,0.00,,---,0.00,VWS V14.00,2013-01-23 15:03:00,
2013-01-23 09:05:00,17.2,8.8,29.00,West,270,0.0,0.0,69,0.00,,---,0.00,VWS V14.00,2013-01-23 15:05:00,
2013-01-23 09:07:00,17.2,9.1,29.00,West,270,0.0,0.0,70,0.00,,---,0.00,VWS V14.00,2013-01-23 15:07:00,
2013-01-23 09:09:00,17.2,9.1,29.00,WSW,248,0.0,0.0,70,0.00,,---,0.00,VWS V14.00,2013-01-23 15:09:00,
2013-01-23 09:13:00,17.4,9.0,29.00,West,270,0.0,0.0,69,0.00,,---,0.00,VWS V14.00,2013-01-23 15:13:00,
2013-01-23 09:14:00,17.4,9.3,29.00,WSW,248,0.0,0.0,70,0.00,,---,0.00,VWS V14.00,2013-01-23 15:14:00,
2013-01-23 09:15:00,17.4,9.3,29.00,West,270,0.0,0.0,70,0.00,,---,0.00,VWS V14.00,2013-01-23 15:15:00,
2013-01-23 09:18:00,17.7,9.6,29.00,WSW,248,0.0,0.0,70,0.00,,---,0.00,VWS V14.00,2013-01-23 15:18:00,
2013-01-23 09:19:00,17.7,9.3,29.00,West,270,0.0,0.0,69,0.00,,---,0.00,VWS V14.00,2013-01-23 15:19:00,
2013-01-23 09:20:00,17.7,9.3,29.00,West,270,0.0,0.0,69,0.00,,---,0.00,VWS V14.00,2013-01-23 15:20:00,
2013-01-23 09:21:00,17.7,9.3,29.00,West,270,0.0,0.0,69,0.00,,---,0.00,VWS V14.00,2013-01-23 15:21:00,
2013-01-23 09:24:00,18.1,9.7,29.00,West,270,0.0,0.0,69,0.00,,---,0.00,VWS V14.00,2013-01-23 15:24:00,
2013-01-23 09:25:00,18.1,9.7,29.00,NW,315,0.0,0.0,69,0.00,,---,0.00,VWS V14.00,2013-01-23 15:25:00,
2013-01-23 09:26:00,18.1,9.7,29.00,West,270,0.0,0.0,69,0.00,,---,0.00,VWS V14.00,2013-01-23 15:26:00,
2013-01-23 09:28:00,18.1,9.7,29.00,West,270,0.0,0.0,69,0.00,,---,0.00,VWS V14.00,2013-01-23 15:28:00,
2013-01-23 09:31:00,18.1,9.7,29.00,North,0,0.0,0.0,69,0.00,,---,0.00,VWS V14.00,2013-01-23 15:31:00,
2013-01-23 09:32:00,18.1,9.7,29.01,WNW,292,0.0,0.0,69,0.00,,---,0.00,VWS V14.00,2013-01-23 15:32:00,
2013-01-23 09:35:00,18.3,9.9,29.01,West,270,0.0,0.0,69,0.00,,---,0.00,VWS V14.00,2013-01-23 15:35:00,
2013-01-23 09:36:00,18.3,9.9,29.00,WSW,248,0.0,0.0,69,0.00,,---,0.00,VWS V14.00,2013-01-23 15:36:00,
2013-01-23 09:40:00,18.3,9.5,29.00,West,270,0.0,0.0,68,0.00,,---,0.00,VWS V14.00,2013-01-23 15:40:00,
2013-01-23 09:41:00,18.3,9.5,29.01,WNW,292,0.0,0.0,68,0.00,,---,0.00,VWS V14.00,2013-01-23 15:41:00,
2013-01-23 09:43:00,18.5,9.7,29.00,NW,315,0.0,0.0,68,0.00,,---,0.00,VWS V14.00,2013-01-23 15:43:00,
2013-01-23 09:46:00,18.5,9.7,29.00,NNW,338,0.0,0.0,68,0.00,,---,0.00,VWS V14.00,2013-01-23 15:46:00,
2013-01-23 09:47:00,18.6,9.8,29.01,NW,315,0.0,0.0,68,0.00,,---,0.00,VWS V14.00,2013-01-23 15:47:00,
2013-01-23 09:48:00,18.6,9.8,29.00,NNW,338,0.0,0.0,68,0.00,,---,0.00,VWS V14.00,2013-01-23 15:48:00,
2013-01-23 09:51:00,18.3,9.5,29.00,NW,315,0.0,0.0,68,0.00,,---,0.00,VWS V14.00,2013-01-23 15:51:00,
2013-01-23 09:53:00,18.3,9.5,29.01,WNW,292,0.0,0.0,68,0.00,,---,0.00,VWS V14.00,2013-01-23 15:53:00,
2013-01-23 09:56:00,18.3,9.5,29.01,WSW,248,0.0,0.0,68,0.00,,---,0.00,VWS V14.00,2013-01-23 15:56:00,
2013-01-23 09:58:00,18.3,9.5,29.01,WNW,292,0.0,0.0,68,0.00,,---,0.00,VWS V14.00,2013-01-23 15:58:00,
2013-01-23 10:01:00,18.3,9.5,29.01,NW,315,0.0,0.0,68,0.00,,---,0.00,VWS V14.00,2013-01-23 16:01:00,
2013-01-23 10:02:00,18.3,9.5,29.01,West,270,0.0,0.0,68,0.00,,---,0.00,VWS V14.00,2013-01-23 16:02:00,
2013-01-23 10:03:00,18.3,9.9,29.02,NW,315,0.0,0.0,69,0.00,,---,0.00,VWS V14.00,2013-01-23 16:03:00,
2013-01-23 10:05:00,18.3,9.9,29.02,NW,315,0.0,0.0,69,0.00,,---,0.00,VWS V14.00,2013-01-23 16:05:00,
2013-01-23 10:08:00,18.1,9.7,29.02,NW,315,0.0,0.0,69,0.00,,---,0.00,VWS V14.00,2013-01-23 16:08:00,
2013-01-23 10:11:00,18.1,9.7,29.02,NW,315,0.0,0.0,69,0.00,,---,0.00,VWS V14.00,2013-01-23 16:11:00,
2013-01-23 10:13:00,17.9,9.5,29.02,NW,315,0.0,0.0,69,0.00,,---,0.00,VWS V14.00,2013-01-23 16:13:00,
2013-01-23 10:15:00,17.7,9.3,29.02,NW,315,0.0,0.0,69,0.00,,---,0.00,VWS V14.00,2013-01-23 16:15:00,
2013-01-23 10:16:00,17.7,9.3,29.02,NW,315,0.0,0.0,69,0.00,,---,0.00,VWS V14.00,2013-01-23 16:16:00,
2013-01-23 10:20:00,17.7,9.6,29.02,WNW,292,0.0,0.0,70,0.00,,---,0.00,VWS V14.00,2013-01-23 16:20:00,
2013-01-23 10:21:00,17.6,9.5,29.02,West,270,0.0,0.0,70,0.00,,---,0.00,VWS V14.00,2013-01-23 16:21:00,
2013-01-23 10:24:00,17.4,9.3,29.01,NW,315,0.0,0.0,70,0.00,,---,0.00,VWS V14.00,2013-01-23 16:24:00,
2013-01-23 10:25:00,17.4,9.3,29.02,North,0,0.0,0.0,70,0.00,,---,0.00,VWS V14.00,2013-01-23 16:25:00,
2013-01-23 10:27:00,17.2,9.1,29.02,NW,315,0.0,0.0,70,0.00,,---,0.00,VWS V14.00,2013-01-23 16:27:00,
2013-01-23 10:30:00,17.2,9.1,29.02,NW,315,0.0,0.0,70,0.00,,---,0.00,VWS V14.00,2013-01-23 16:30:00,
2013-01-23 10:31:00,17.4,9.3,29.02,NW,315,0.0,0.0,70,0.00,,---,0.00,VWS V14.00,2013-01-23 16:31:00,
2013-01-23 10:35:00,17.4,9.3,29.02,West,270,0.0,0.0,70,0.00,,---,0.00,VWS V14.00,2013-01-23 16:35:00,
2013-01-23 10:36:00,17.4,9.3,29.02,NW,315,0.0,0.0,70,0.00,,---,0.00,VWS V14.00,2013-01-23 16:36:00,
2013-01-23 10:39:00,17.4,9.3,29.01,NNW,338,0.0,0.0,70,0.00,,---,0.00,VWS V14.00,2013-01-23 16:39:00,
2013-01-23 10:40:00,17.4,9.3,29.01,NNW,338,0.0,0.0,70,0.00,,---,0.00,VWS V14.00,2013-01-23 16:40:00,
2013-01-23 10:43:00,17.7,9.6,29.01,NW,315,0.0,0.0,70,0.00,,---,0.00,VWS V14.00,2013-01-23 16:43:00,
2013-01-23 10:44:00,17.7,9.6,29.02,NNW,338,0.0,0.0,70,0.00,,---,0.00,VWS V14.00,2013-01-23 16:44:00,
2013-01-23 10:45:00,17.7,9.9,29.02,NNW,338,0.0,0.0,71,0.00,,---,0.00,VWS V14.00,2013-01-23 16:45:00,
2013-01-23 10:48:00,17.9,10.1,29.02,NW,315,0.0,0.0,71,0.00,,---,0.00,VWS V14.00,2013-01-23 16:48:00,
2013-01-23 10:50:00,17.9,10.1,29.02,NW,315,0.0,0.0,71,0.00,,---,0.00,VWS V14.00,2013-01-23 16:50:00,
2013-01-23 10:53:00,18.3,10.5,29.02,NW,315,0.0,0.0,71,0.00,,---,0.00,VWS V14.00,2013-01-23 16:53:00,
2013-01-23 10:54:00,18.3,10.5,29.02,NW,315,0.0,0.0,71,0.00,,---,0.00,VWS V14.00,2013-01-23 16:54:00,
2013-01-23 10:58:00,18.5,10.4,29.02,NW,315,0.0,0.0,70,0.00,,---,0.00,VWS V14.00,2013-01-23 16:58:00,
2013-01-23 10:59:00,18.3,10.2,29.02,WNW,292,0.0,0.0,70,0.00,,---,0.00,VWS V14.00,2013-01-23 16:59:00,
2013-01-23 11:01:00,18.3,10.2,29.02,NW,315,0.0,0.0,70,0.00,,---,0.00,VWS V14.00,2013-01-23 17:01:00,
2013-01-23 11:04:00,18.1,10.0,29.02,NW,315,0.0,0.0,70,0.00,,---,0.00,VWS V14.00,2013-01-23 17:04:00,
2013-01-23 11:09:00,18.1,10.0,29.02,WNW,292,0.0,0.0,70,0.00,,---,0.00,VWS V14.00,2013-01-23 17:09:00,
2013-01-23 11:10:00,18.1,10.0,29.02,NW,315,0.0,0.0,70,0.00,,---,0.00,VWS V14.00,2013-01-23 17:10:00,
2013-01-23 11:14:00,18.3,10.2,29.02,NW,315,0.0,0.0,70,0.00,,---,0.00,VWS V14.00,2013-01-23 17:14:00,
2013-01-23 11:15:00,18.3,10.2,29.02,NW,315,0.0,0.0,70,0.00,,---,0.00,VWS V14.00,2013-01-23 17:15:00,
2013-01-23 11:19:00,18.6,10.5,29.01,NNW,338,0.0,0.0,70,0.00,,---,0.00,VWS V14.00,2013-01-23 17:19:00,
2013-01-23 11:20:00,18.6,10.5,29.02,NW,315,0.0,0.0,70,0.00,,---,0.00,VWS V14.00,2013-01-23 17:20:00,
2013-01-23 11:21:00,18.6,10.5,29.02,NW,315,0.0,0.0,70,0.00,,---,0.00,VWS V14.00,2013-01-23 17:21:00,
2013-01-23 11:26:00,18.5,10.0,29.02,NW,315,0.0,0.0,69,0.00,,---,0.00,VWS V14.00,2013-01-23 17:26:00,
2013-01-23 11:27:00,18.5,10.0,29.02,NW,315,0.0,0.0,69,0.00,,---,0.00,VWS V14.00,2013-01-23 17:27:00,
2013-01-23 11:30:00,18.3,9.9,29.02,NNW,338,0.0,0.0,69,0.00,,---,0.00,VWS V14.00,2013-01-23 17:30:00,
2013-01-23 11:32:00,18.1,10.0,29.02,NW,315,0.0,0.0,70,0.00,,---,0.00,VWS V14.00,2013-01-23 17:32:00,
2013-01-23 11:33:00,18.3,10.2,29.02,NW,315,0.0,0.0,70,0.00,,---,0.00,VWS V14.00,2013-01-23 17:33:00,
2013-01-23 11:37:00,18.5,10.4,29.02,NNW,338,0.0,0.0,70,0.00,,---,0.00,VWS V14.00,2013-01-23 17:37:00,
2013-01-23 11:38:00,18.5,10.4,29.02,WNW,292,0.0,0.0,70,0.00,,---,0.00,VWS V14.00,2013-01-23 17:38:00,
2013-01-23 11:41:00,18.6,10.5,29.02,NW,315,0.0,0.0,70,0.00,,---,0.00,VWS V14.00,2013-01-23 17:41:00,
2013-01-23 11:42:00,18.6,10.5,29.01,NW,315,0.0,0.0,70,0.00,,---,0.00,VWS V14.00,2013-01-23 17:42:00,
2013-01-23 11:45:00,19.0,10.8,29.02,NW,315,0.0,0.0,70,0.00,,---,0.00,VWS V14.00,2013-01-23 17:45:00,
2013-01-23 11:46:00,19.2,11.0,29.02,NW,315,0.0,0.0,70,0.00,,---,0.00,VWS V14.00,2013-01-23 17:46:00,
2013-01-23 11:47:00,19.2,10.7,29.02,NNW,338,0.0,0.0,69,0.00,,---,0.00,VWS V14.00,2013-01-23 17:47:00,
2013-01-23 11:51:00,19.4,10.9,29.02,NW,315,0.0,0.0,69,0.00,,---,0.00,VWS V14.00,2013-01-23 17:51:00,
2013-01-23 11:53:00,19.5,11.0,29.02,WNW,292,0.0,0.0,69,0.00,,---,0.00,VWS V14.00,2013-01-23 17:53:00,
2013-01-23 11:56:00,19.2,10.7,29.02,NW,315,0.0,0.0,69,0.00,,---,0.00,VWS V14.00,2013-01-23 17:56:00,
2013-01-23 11:57:00,19.0,10.2,29.02,NNW,338,0.0,0.0,68,0.00,,---,0.00,VWS V14.00,2013-01-23 17:57:00,
2013-01-23 11:59:00,18.8,10.0,29.02,NW,315,0.0,0.0,68,0.00,,---,0.00,VWS V14.00,2013-01-23 17:59:00,
2013-01-23 12:00:00,18.6,9.8,29.02,NNW,338,0.0,0.0,68,0.00,,---,0.00,VWS V14.00,2013-01-23 18:00:00,
2013-01-23 12:01:00,18.5,9.7,29.02,NNW,338,0.0,0.0,68,0.00,,---,0.00,VWS V14.00,2013-01-23 18:01:00,
2013-01-23 12:06:00,18.3,9.5,29.01,NNW,338,0.0,0.0,68,0.00,,---,0.00,VWS V14.00,2013-01-23 18:06:00,
2013-01-23 12:08:00,18.1,9.3,29.02,NW,315,0.0,0.0,68,0.00,,---,0.00,VWS V14.00,2013-01-23 18:08:00,
2013-01-23 12:10:00,18.1,9.3,29.02,NW,315,0.0,0.0,68,0.00,,---,0.00,VWS V14.00,2013-01-23 18:10:00,
2013-01-23 12:13:00,17.9,8.8,29.02,NW,315,0.0,0.0,67,0.00,,---,0.00,VWS V14.00,2013-01-23 18:13:00,
2013-01-23 12:15:00,17.7,8.6,29.01,NNW,338,0.0,0.0,67,0.00,,---,0.00,VWS V14.00,2013-01-23 18:15:00,
2013-01-23 12:17:00,17.4,8.3,29.02,NW,315,0.0,0.0,67,0.00,,---,0.00,VWS V14.00,2013-01-23 18:17:00,
2013-01-23 12:21:00,17.4,8.7,29.01,NW,315,0.0,0.0,68,0.00,,---,0.00,VWS V14.00,2013-01-23 18:21:00,
2013-01-23 12:23:00,17.6,8.9,29.01,NW,315,0.0,0.0,68,0.00,,---,0.00,VWS V14.00,2013-01-23 18:23:00,
2013-01-23 12:24:00,17.7,8.9,29.01,NW,315,0.0,0.0,68,0.00,,---,0.00,VWS V14.00,2013-01-23 18:24:00,
2013-01-23 12:26:00,17.7,8.9,29.01,NW,315,0.0,0.0,68,0.00,,---,0.00,VWS V14.00,2013-01-23 18:26:00,
2013-01-23 12:29:00,18.1,9.7,29.02,NNW,338,0.0,0.0,69,0.00,,---,0.00,VWS V14.00,2013-01-23 18:29:00,
2013-01-23 12:31:00,17.7,8.6,29.02,North,0,0.0,0.0,67,0.00,,---,0.00,VWS V14.00,2013-01-23 18:31:00,
2013-01-23 12:36:00,17.4,8.3,29.01,NW,315,0.0,0.0,67,0.00,,---,0.00,VWS V14.00,2013-01-23 18:36:00,
2013-01-23 12:37:00,17.4,8.3,29.02,NW,315,0.0,0.0,67,0.00,,---,0.00,VWS V14.00,2013-01-23 18:37:00,
2013-01-23 12:40:00,17.0,7.9,29.01,NW,315,0.0,0.0,67,0.00,,---,0.00,VWS V14.00,2013-01-23 18:40:00,
2013-01-23 12:42:00,16.8,7.8,29.01,NW,315,0.0,0.0,67,0.00,,---,0.00,VWS V14.00,2013-01-23 18:42:00,
2013-01-23 12:43:00,16.8,8.1,29.01,NW,315,0.0,0.0,68,0.00,,---,0.00,VWS V14.00,2013-01-23 18:43:00,
2013-01-23 12:47:00,17.4,8.3,29.02,NW,315,0.0,0.0,67,0.00,,---,0.00,VWS V14.00,2013-01-23 18:47:00,
2013-01-23 12:48:00,17.4,8.0,29.02,NW,315,0.0,0.0,66,0.00,,---,0.00,VWS V14.00,2013-01-23 18:48:00,
2013-01-23 12:51:00,17.4,8.0,29.02,NW,315,0.0,0.0,66,0.00,,---,0.00,VWS V14.00,2013-01-23 18:51:00,
2013-01-23 12:55:00,17.4,8.3,29.01,NNW,338,0.0,0.0,67,0.00,,---,0.00,VWS V14.00,2013-01-23 18:55:00,
2013-01-23 12:56:00,17.4,8.3,29.01,NW,315,0.0,0.0,67,0.00,,---,0.00,VWS V14.00,2013-01-23 18:56:00,
2013-01-23 12:57:00,17.4,8.3,29.01,North,0,0.0,0.0,67,0.00,,---,0.00,VWS V14.00,2013-01-23 18:57:00,
2013-01-23 13:00:00,17.7,8.3,29.01,NNW,338,0.0,0.0,66,0.00,,---,0.00,VWS V14.00,2013-01-23 19:00:00,
2013-01-23 13:02:00,18.1,8.7,29.01,NNW,338,0.0,0.0,66,0.00,,---,0.00,VWS V14.00,2013-01-23 19:02:00,
2013-01-23 13:03:00,18.1,8.7,29.01,NW,315,0.0,0.0,66,0.00,,---,0.00,VWS V14.00,2013-01-23 19:03:00,
2013-01-23 13:05:00,18.1,8.7,29.01,NW,315,0.0,0.0,66,0.00,,---,0.00,VWS V14.00,2013-01-23 19:05:00,
2013-01-23 13:08:00,17.9,8.5,29.01,NNW,338,0.0,0.0,66,0.00,,---,0.00,VWS V14.00,2013-01-23 19:08:00,
2013-01-23 13:11:00,17.9,8.5,29.00,NW,315,0.0,0.0,66,0.00,,---,0.00,VWS V14.00,2013-01-23 19:11:00,
2013-01-23 13:13:00,18.1,8.7,29.00,NW,315,0.0,0.0,66,0.00,,---,0.00,VWS V14.00,2013-01-23 19:13:00,
2013-01-23 13:16:00,18.1,8.7,29.00,NNW,338,0.0,0.0,66,0.00,,---,0.00,VWS V14.00,2013-01-23 19:16:00,
2013-01-23 13:20:00,17.7,8.3,29.00,WNW,292,0.0,0.0,66,0.00,,---,0.00,VWS V14.00,2013-01-23 19:20:00,
2013-01-23 13:21:00,17.7,8.3,29.00,NNW,338,0.0,0.0,66,0.00,,---,0.00,VWS V14.00,2013-01-23 19:21:00,
2013-01-23 13:22:00,17.7,8.3,29.00,NW,315,0.0,0.0,66,0.00,,---,0.00,VWS V14.00,2013-01-23 19:22:00,
2013-01-23 13:26:00,17.9,8.8,29.00,NW,315,0.0,0.0,67,0.00,,---,0.00,VWS V14.00,2013-01-23 19:26:00,
2013-01-23 13:27:00,17.9,8.8,29.00,NW,315,0.0,0.0,67,0.00,,---,0.00,VWS V14.00,2013-01-23 19:27:00,
2013-01-23 13:29:00,18.3,9.2,29.00,NW,315,0.0,0.0,67,0.00,,---,0.00,VWS V14.00,2013-01-23 19:29:00,
2013-01-23 13:33:00,18.8,9.3,29.00,NW,315,0.0,0.0,66,0.00,,---,0.00,VWS V14.00,2013-01-23 19:33:00,
2013-01-23 13:34:00,19.0,9.5,29.00,NNW,338,0.0,0.0,66,0.00,,---,0.00,VWS V14.00,2013-01-23 19:34:00,
2013-01-23 13:36:00,19.0,9.2,29.00,NW,315,0.0,0.0,65,0.00,,---,0.00,VWS V14.00,2013-01-23 19:36:00,
2013-01-23 13:40:00,18.8,9.3,29.00,West,270,0.0,0.0,66,0.00,,---,0.00,VWS V14.00,2013-01-23 19:40:00,
2013-01-23 13:41:00,18.8,9.3,29.00,WNW,292,0.0,0.0,66,0.00,,---,0.00,VWS V14.00,2013-01-23 19:41:00,
2013-01-23 13:42:00,18.8,9.3,29.00,WNW,292,0.0,0.0,66,0.00,,---,0.00,VWS V14.00,2013-01-23 19:42:00,
2013-01-23 13:45:00,19.0,9.9,29.00,NNW,338,0.0,0.0,67,0.00,,---,0.00,VWS V14.00,2013-01-23 19:45:00,
2013-01-23 13:46:00,19.2,10.1,29.00,WNW,292,0.0,0.0,67,0.00,,---,0.00,VWS V14.00,2013-01-23 19:46:00,
2013-01-23 13:48:00,19.2,10.1,29.00,NW,315,0.0,0.0,67,0.00,,---,0.00,VWS V14.00,2013-01-23 19:48:00,
2013-01-23 13:51:00,19.5,10.0,29.00,WNW,292,0.0,0.0,66,0.00,,---,0.00,VWS V14.00,2013-01-23 19:51:00,
2013-01-23 13:55:00,19.5,10.0,29.00,NW,315,0.0,0.0,66,0.00,,---,0.00,VWS V14.00,2013-01-23 19:55:00,
2013-01-23 13:59:00,19.5,10.0,29.01,NW,315,0.0,0.0,66,0.00,,---,0.00,VWS V14.00,2013-01-23 19:59:00,
2013-01-23 14:00:00,19.5,9.7,29.01,WNW,292,0.0,0.0,65,0.00,,---,0.00,VWS V14.00,2013-01-23 20:00:00,
2013-01-23 14:02:00,19.4,9.6,29.01,NW,315,0.0,0.0,65,0.00,,---,0.00,VWS V14.00,2013-01-23 20:02:00,
2013-01-23 14:04:00,19.0,8.8,29.00,NW,315,0.0,0.0,64,0.00,,---,0.00,VWS V14.00,2013-01-23 20:04:00,
2013-01-23 14:06:00,18.6,8.5,29.00,NNW,338,0.0,0.0,64,0.00,,---,0.00,VWS V14.00,2013-01-23 20:06:00,
2013-01-23 14:07:00,18.6,8.8,29.00,NW,315,0.0,0.0,65,0.00,,---,0.00,VWS V14.00,2013-01-23 20:07:00,
2013-01-23 14:11:00,18.8,9.3,29.01,NNW,338,0.0,0.0,66,0.00,,---,0.00,VWS V14.00,2013-01-23 20:11:00,
2013-01-23 14:13:00,18.8,9.3,29.01,NW,315,0.0,0.0,66,0.00,,---,0.00,VWS V14.00,2013-01-23 20:13:00,
2013-01-23 14:15:00,18.5,9.1,29.01,NW,315,0.0,0.0,66,0.00,,---,0.00,VWS V14.00,2013-01-23 20:15:00,
2013-01-23 14:18:00,18.3,8.9,29.01,NW,315,0.0,0.0,66,0.00,,---,0.00,VWS V14.00,2013-01-23 20:18:00,
2013-01-23 14:20:00,18.3,8.9,29.02,NW,315,0.0,0.0,66,0.00,,---,0.00,VWS V14.00,2013-01-23 20:20:00,
2013-01-23 14:24:00,18.3,8.9,29.02,NW,315,0.0,0.0,66,0.00,,---,0.00,VWS V14.00,2013-01-23 20:24:00,
2013-01-23 14:25:00,18.3,8.9,29.02,NW,315,0.0,0.0,66,0.00,,---,0.00,VWS V14.00,2013-01-23 20:25:00,
2013-01-23 14:27:00,18.3,8.5,29.02,NW,315,0.0,0.0,65,0.00,,---,0.00,VWS V14.00,2013-01-23 20:27:00,
2013-01-23 14:29:00,17.9,8.5,29.02,NW,315,0.0,0.0,66,0.00,,---,0.00,VWS V14.00,2013-01-23 20:29:00,
2013-01-23 14:30:00,18.1,8.7,29.02,NW,315,0.0,0.0,66,0.00,,---,0.00,VWS V14.00,2013-01-23 20:30:00,
2013-01-23 14:34:00,18.3,9.2,29.02,NW,315,0.0,0.0,67,0.00,,---,0.00,VWS V14.00,2013-01-23 20:34:00,
2013-01-23 14:36:00,18.3,9.5,29.02,NNW,338,0.0,0.0,68,0.00,,---,0.00,VWS V14.00,2013-01-23 20:36:00,
2013-01-23 14:37:00,18.3,9.2,29.02,WNW,292,0.0,0.0,67,0.00,,---,0.00,VWS V14.00,2013-01-23 20:37:00,
2013-01-23 14:39:00,18.3,9.2,29.02,NW,315,0.0,0.0,67,0.00,,---,0.00,VWS V14.00,2013-01-23 20:39:00,
2013-01-23 14:41:00,18.1,9.0,29.02,NW,315,0.0,0.0,67,0.00,,---,0.00,VWS V14.00,2013-01-23 20:41:00,
2013-01-23 14:44:00,17.9,8.5,29.02,NW,315,0.0,0.0,66,0.00,,---,0.00,VWS V14.00,2013-01-23 20:44:00,
2013-01-23 14:45:00,17.9,8.5,29.02,NNW,338,0.0,0.0,66,0.00,,---,0.00,VWS V14.00,2013-01-23 20:45:00,
2013-01-23 14:47:00,17.9,8.1,29.02,NW,315,0.0,0.0,65,0.00,,---,0.00,VWS V14.00,2013-01-23 20:47:00,
2013-01-23 14:49:00,17.7,7.6,29.02,NW,315,0.0,0.0,64,0.00,,---,0.00,VWS V14.00,2013-01-23 20:49:00,
2013-01-23 14:50:00,17.9,7.8,29.02,NW,315,0.0,0.0,64,0.00,,---,0.00,VWS V14.00,2013-01-23 20:50:00,
2013-01-23 14:53:00,18.1,8.0,29.02,NW,315,0.0,0.0,64,0.00,,---,0.00,VWS V14.00,2013-01-23 20:53:00,
2013-01-23 14:55:00,18.1,8.0,29.04,WNW,292,0.0,0.0,64,0.00,,---,0.00,VWS V14.00,2013-01-23 20:55:00,
2013-01-23 14:56:00,18.1,7.6,29.04,WNW,292,0.0,0.0,63,0.00,,---,0.00,VWS V14.00,2013-01-23 20:56:00,
2013-01-23 14:58:00,17.7,6.9,29.04,North,0,0.0,0.0,62,0.00,,---,0.00,VWS V14.00,2013-01-23 20:58:00,
2013-01-23 15:00:00,17.7,7.3,29.04,NW,315,0.0,0.0,63,0.00,,---,0.00,VWS V14.00,2013-01-23 21:00:00,
2013-01-23 15:01:00,17.7,7.3,29.04,NW,315,0.0,0.0,63,0.00,,---,0.00,VWS V14.00,2013-01-23 21:01:00,
2013-01-23 15:03:00,17.7,6.9,29.04,WNW,292,0.0,0.0,62,0.00,,---,0.00,VWS V14.00,2013-01-23 21:03:00,
2013-01-23 15:05:00,17.7,6.9,29.04,NW,315,0.0,0.0,62,0.00,,---,0.00,VWS V14.00,2013-01-23 21:05:00,
2013-01-23 15:06:00,17.7,6.6,29.04,WNW,292,0.0,0.0,61,0.00,,---,0.00,VWS V14.00,2013-01-23 21:06:00,
2013-01-23 15:10:00,17.7,6.2,29.05,NW,315,0.0,0.0,60,0.00,,---,0.00,VWS V14.00,2013-01-23 21:10:00,
2013-01-23 15:15:00,17.7,6.2,29.05,NW,315,0.0,0.0,60,0.00,,---,0.00,VWS V14.00,2013-01-23 21:15:00,
2013-01-23 15:17:00,17.7,5.8,29.05,WNW,292,0.0,0.0,59,0.00,,---,0.00,VWS V14.00,2013-01-23 21:17:00,
2013-01-23 15:22:00,17.7,5.4,29.05,NW,315,0.0,0.0,58,0.00,,---,0.00,VWS V14.00,2013-01-23 21:22:00,
2013-01-23 15:23:00,17.7,5.4,29.05,NW,315,0.0,0.0,58,0.00,,---,0.00,VWS V14.00,2013-01-23 21:23:00,
2013-01-23 15:28:00,17.2,5.0,29.04,NW,315,0.0,0.0,58,0.00,,---,0.00,VWS V14.00,2013-01-23 21:28:00,
2013-01-23 15:32:00,17.2,5.0,29.05,NW,315,0.0,0.0,58,0.00,,---,0.00,VWS V14.00,2013-01-23 21:32:00,
2013-01-23 15:33:00,17.4,5.2,29.05,NW,315,0.0,0.0,58,0.00,,---,0.00,VWS V14.00,2013-01-23 21:33:00,
2013-01-23 15:34:00,17.4,4.8,29.05,NW,315,0.0,0.0,57,0.00,,---,0.00,VWS V14.00,2013-01-23 21:34:00,
2013-01-23 15:39:00,17.2,4.6,29.05,NNW,338,0.0,0.0,57,0.00,,---,0.00,VWS V14.00,2013-01-23 21:39:00,
2013-01-23 15:41:00,17.0,4.0,29.05,NW,315,0.0,0.0,56,0.00,,---,0.00,VWS V14.00,2013-01-23 21:41:00,
2013-01-23 15:45:00,16.8,4.2,29.05,NW,315,0.0,0.0,57,0.00,,---,0.00,VWS V14.00,2013-01-23 21:45:00,
2013-01-23 15:46:00,16.8,4.2,29.05,WNW,292,0.0,0.0,57,0.00,,---,0.00,VWS V14.00,2013-01-23 21:46:00,
2013-01-23 15:49:00,16.8,3.8,29.05,NW,315,0.0,0.0,56,0.00,,---,0.00,VWS V14.00,2013-01-23 21:49:00,
2013-01-23 15:51:00,16.8,3.5,29.05,NW,315,0.0,0.0,55,0.00,,---,0.00,VWS V14.00,2013-01-23 21:51:00,
2013-01-23 15:56:00,16.3,3.0,29.05,NW,315,0.0,0.0,55,0.00,,---,0.00,VWS V14.00,2013-01-23 21:56:00,
2013-01-23 16:00:00,15.9,2.6,29.06,NNW,338,0.0,0.0,55,0.00,,---,0.00,VWS V14.00,2013-01-23 22:00:00,
2013-01-23 16:01:00,16.1,2.8,29.06,NW,315,0.0,0.0,55,0.00,,---,0.00,VWS V14.00,2013-01-23 22:01:00,
2013-01-23 16:06:00,16.1,3.2,29.06,NW,315,0.0,0.0,56,0.00,,---,0.00,VWS V14.00,2013-01-23 22:06:00,
2013-01-23 16:08:00,15.8,2.9,29.07,NW,315,0.0,0.0,56,0.00,,---,0.00,VWS V14.00,2013-01-23 22:08:00,
2013-01-23 16:11:00,15.6,2.7,29.07,WNW,292,0.0,0.0,56,0.00,,---,0.00,VWS V14.00,2013-01-23 22:11:00,
2013-01-23 16:16:00,14.9,2.0,29.07,NW,315,0.0,0.0,56,0.00,,---,0.00,VWS V14.00,2013-01-23 22:16:00,
2013-01-23 16:17:00,14.9,2.0,29.07,North,0,0.0,0.0,56,0.00,,---,0.00,VWS V14.00,2013-01-23 22:17:00,
2013-01-23 16:22:00,14.5,2.4,29.07,North,0,0.0,0.0,58,0.00,,---,0.00,VWS V14.00,2013-01-23 22:22:00,
2013-01-23 16:27:00,13.6,1.6,29.08,NW,315,0.0,0.0,58,0.00,,---,0.00,VWS V14.00,2013-01-23 22:27:00,
2013-01-23 16:30:00,13.1,1.1,29.08,NW,315,0.0,0.0,58,0.00,,---,0.00,VWS V14.00,2013-01-23 22:30:00,
2013-01-23 16:33:00,12.9,1.3,29.09,WNW,292,0.0,0.0,59,0.00,,---,0.00,VWS V14.00,2013-01-23 22:33:00,
2013-01-23 16:39:00,12.3,1.1,29.09,NW,315,0.0,0.0,60,0.00,,---,0.00,VWS V14.00,2013-01-23 22:39:00,
2013-01-23 16:41:00,12.2,1.0,29.09,NW,315,0.0,0.0,60,0.00,,---,0.00,VWS V14.00,2013-01-23 22:41:00,
2013-01-23 16:44:00,12.0,0.8,29.09,NW,315,0.0,0.0,60,0.00,,---,0.00,VWS V14.00,2013-01-23 22:44:00,
2013-01-23 16:45:00,11.8,1.0,29.09,WNW,292,0.0,0.0,61,0.00,,---,0.00,VWS V14.00,2013-01-23 22:45:00,
2013-01-23 16:50:00,11.4,0.9,29.09,NW,315,0.0,0.0,62,0.00,,---,0.00,VWS V14.00,2013-01-23 22:50:00,
2013-01-23 16:52:00,11.3,0.8,29.10,NW,315,0.0,0.0,62,0.00,,---,0.00,VWS V14.00,2013-01-23 22:52:00,
2013-01-23 16:55:00,10.9,0.4,29.09,NW,315,0.0,0.0,62,0.00,,---,0.00,VWS V14.00,2013-01-23 22:55:00,
2013-01-23 16:57:00,10.7,0.3,29.10,NW,315,0.0,0.0,62,0.00,,---,0.00,VWS V14.00,2013-01-23 22:57:00,
2013-01-23 17:00:00,10.5,0.1,29.10,NNW,338,0.0,0.0,62,0.00,,---,0.00,VWS V14.00,2013-01-23 23:00:00,
2013-01-23 17:04:00,10.2,-0.6,29.10,NW,315,0.0,0.0,61,0.00,,---,0.00,VWS V14.00,2013-01-23 23:04:00,
2013-01-23 17:07:00,10.0,-1.1,29.10,NW,315,0.0,0.0,60,0.00,,---,0.00,VWS V14.00,2013-01-23 23:07:00,
2013-01-23 17:12:00,9.6,-1.5,29.10,NNW,338,0.0,0.0,60,0.00,,---,0.00,VWS V14.00,2013-01-23 23:12:00,
2013-01-23 17:17:00,9.5,-1.6,29.12,NW,315,0.0,0.0,60,0.00,,---,0.00,VWS V14.00,2013-01-23 23:17:00,
2013-01-23 17:19:00,9.5,-1.6,29.12,NW,315,0.0,0.0,60,0.00,,---,0.00,VWS V14.00,2013-01-23 23:19:00,
2013-01-23 17:22:00,9.3,-1.4,29.12,NNW,338,0.0,0.0,61,0.00,,---,0.00,VWS V14.00,2013-01-23 23:22:00,
2013-01-23 17:23:00,9.1,-1.6,29.12,NNW,338,0.0,0.0,61,0.00,,---,0.00,VWS V14.00,2013-01-23 23:23:00,
2013-01-23 17:28:00,8.9,-1.8,29.12,NW,315,0.0,0.0,61,0.00,,---,0.00,VWS V14.00,2013-01-23 23:28:00,
2013-01-23 17:30:00,8.9,-1.8,29.12,NW,315,0.0,0.0,61,0.00,,---,0.00,VWS V14.00,2013-01-23 23:30:00,
2013-01-23 17:33:00,8.7,-2.0,29.12,NW,315,0.0,0.0,61,0.00,,---,0.00,VWS V14.00,2013-01-23 23:33:00,
2013-01-23 17:37:00,8.6,-2.1,29.13,NW,315,0.0,0.0,61,0.00,,---,0.00,VWS V14.00,2013-01-23 23:37:00,
2013-01-23 17:38:00,8.6,-2.1,29.13,NNW,338,0.0,0.0,61,0.00,,---,0.00,VWS V14.00,2013-01-23 23:38:00,
2013-01-23 17:42:00,8.4,-2.6,29.13,NNW,338,0.0,0.0,60,0.00,,---,0.00,VWS V14.00,2013-01-23 23:42:00,
2013-01-23 17:45:00,8.4,-3.0,29.13,NNW,338,0.0,0.0,59,0.00,,---,0.00,VWS V14.00,2013-01-23 23:45:00,
2013-01-23 17:47:00,8.2,-3.2,29.13,NNW,338,0.0,0.0,59,0.00,,---,0.00,VWS V14.00,2013-01-23 23:47:00,
2013-01-23 17:49:00,8.0,-3.3,29.13,NW,315,0.0,0.0,59,0.00,,---,0.00,VWS V14.00,2013-01-23 23:49:00,
2013-01-23 17:51:00,8.0,-3.3,29.13,NW,315,0.0,0.0,59,0.00,,---,0.00,VWS V14.00,2013-01-23 23:51:00,
2013-01-23 17:54:00,7.8,-3.5,29.14,NW,315,0.0,0.0,59,0.00,,---,0.00,VWS V14.00,2013-01-23 23:54:00,
2013-01-23 17:56:00,7.8,-3.5,29.14,North,0,0.0,0.0,59,0.00,,---,0.00,VWS V14.00,2013-01-23 23:56:00,
2013-01-23 17:58:00,7.7,-3.6,29.14,NW,315,0.0,0.0,59,0.00,,---,0.00,VWS V14.00,2013-01-23 23:58:00,
2013-01-23 18:01:00,7.7,-3.6,29.14,NW,315,0.0,0.0,59,0.00,,---,0.00,VWS V14.00,2013-01-24 00:01:00,
2013-01-23 18:02:00,7.5,-3.8,29.14,NNW,338,0.0,0.0,59,0.00,,---,0.00,VWS V14.00,2013-01-24 00:02:00,
2013-01-23 18:03:00,7.5,-3.8,29.15,NW,315,0.0,0.0,59,0.00,,---,0.00,VWS V14.00,2013-01-24 00:03:00,
2013-01-23 18:05:00,7.3,-4.4,29.15,NW,315,0.0,0.0,58,0.00,,---,0.00,VWS V14.00,2013-01-24 00:05:00,
2013-01-23 18:07:00,7.3,-4.0,29.15,NNW,338,0.0,0.0,59,0.00,,---,0.00,VWS V14.00,2013-01-24 00:07:00,
2013-01-23 18:08:00,7.3,-4.0,29.15,WNW,292,0.0,0.0,59,0.00,,---,0.00,VWS V14.00,2013-01-24 00:08:00,
2013-01-23 18:10:00,7.1,-4.2,29.16,NW,315,0.0,0.0,59,0.00,,---,0.00,VWS V14.00,2013-01-24 00:10:00,
2013-01-23 18:12:00,7.1,-4.2,29.16,NW,315,0.0,0.0,59,0.00,,---,0.00,VWS V14.00,2013-01-24 00:12:00,
2013-01-23 18:13:00,6.9,-4.4,29.16,NW,315,0.0,0.0,59,0.00,,---,0.00,VWS V14.00,2013-01-24 00:13:00,
2013-01-23 18:14:00,6.9,-4.4,29.16,NNW,338,0.0,0.0,59,0.00,,---,0.00,VWS V14.00,2013-01-24 00:14:00,
2013-01-23 18:18:00,6.9,-4.4,29.17,NW,315,0.0,0.0,59,0.00,,---,0.00,VWS V14.00,2013-01-24 00:18:00,
2013-01-23 18:19:00,6.8,-4.1,29.17,NW,315,0.0,0.0,60,0.00,,---,0.00,VWS V14.00,2013-01-24 00:19:00,
2013-01-23 18:21:00,6.6,-4.3,29.17,NW,315,0.0,0.0,60,0.00,,---,0.00,VWS V14.00,2013-01-24 00:21:00,
2013-01-23 18:24:00,6.6,-4.3,29.17,NW,315,0.0,0.0,60,0.00,,---,0.00,VWS V14.00,2013-01-24 00:24:00,
2013-01-23 18:26:00,6.6,-4.3,29.17,NW,315,0.0,0.0,60,0.00,,---,0.00,VWS V14.00,2013-01-24 00:26:00,
2013-01-23 18:27:00,6.6,-4.3,29.17,WNW,292,0.0,0.0,60,0.00,,---,0.00,VWS V14.00,2013-01-24 00:27:00,
2013-01-23 18:28:00,6.4,-4.5,29.17,NNW,338,0.0,0.0,60,0.00,,---,0.00,VWS V14.00,2013-01-24 00:28:00,
2013-01-23 18:33:00,6.2,-4.7,29.18,NNW,338,0.0,0.0,60,0.00,,---,0.00,VWS V14.00,2013-01-24 00:33:00,
2013-01-23 18:34:00,6.0,-4.9,29.17,NNW,338,0.0,0.0,60,0.00,,---,0.00,VWS V14.00,2013-01-24 00:34:00,
2013-01-23 18:37:00,6.0,-4.9,29.17,NW,315,0.0,0.0,60,0.00,,---,0.00,VWS V14.00,2013-01-24 00:37:00,
2013-01-23 18:39:00,6.0,-4.6,29.18,NNW,338,0.0,0.0,61,0.00,,---,0.00,VWS V14.00,2013-01-24 00:39:00,
2013-01-23 18:42:00,5.9,-5.0,29.18,North,0,0.0,0.0,60,0.00,,---,0.00,VWS V14.00,2013-01-24 00:42:00,
2013-01-23 18:44:00,5.7,-5.2,29.18,NW,315,0.0,0.0,60,0.00,,---,0.00,VWS V14.00,2013-01-24 00:44:00,
2013-01-23 18:47:00,5.5,-5.0,29.18,NW,315,0.0,0.0,61,0.00,,---,0.00,VWS V14.00,2013-01-24 00:47:00,
2013-01-23 18:48:00,5.5,-5.0,29.18,NNW,338,0.0,0.0,61,0.00,,---,0.00,VWS V14.00,2013-01-24 00:48:00,
2013-01-23 18:50:00,5.5,-5.0,29.18,WNW,292,0.0,0.0,61,0.00,,---,0.00,VWS V14.00,2013-01-24 00:50:00,
2013-01-23 18:52:00,5.5,-5.0,29.19,NNW,338,0.0,0.0,61,0.00,,---,0.00,VWS V14.00,2013-01-24 00:52:00,
2013-01-23 18:55:00,5.3,-5.2,29.19,NNW,338,0.0,0.0,61,0.00,,---,0.00,VWS V14.00,2013-01-24 00:55:00,
2013-01-23 18:57:00,5.1,-5.4,29.19,NNW,338,0.0,0.0,61,0.00,,---,0.00,VWS V14.00,2013-01-24 00:57:00,
2013-01-23 19:02:00,5.0,-5.5,29.20,NW,315,0.0,0.0,61,0.00,,---,0.00,VWS V14.00,2013-01-24 01:02:00,
2013-01-23 19:07:00,4.8,-5.3,29.20,NNW,338,0.0,0.0,62,0.00,,---,0.00,VWS V14.00,2013-01-24 01:07:00,
2013-01-23 19:12:00,4.8,-5.3,29.20,WNW,292,0.0,0.0,62,0.00,,---,0.00,VWS V14.00,2013-01-24 01:12:00,
2013-01-23 19:13:00,4.8,-5.3,29.20,NNW,338,0.0,0.0,62,0.00,,---,0.00,VWS V14.00,2013-01-24 01:13:00,
2013-01-23 19:18:00,4.6,-5.5,29.20,NNW,338,0.0,0.0,62,0.00,,---,0.00,VWS V14.00,2013-01-24 01:18:00,
2013-01-23 19:21:00,4.4,-5.7,29.21,NW,315,0.0,0.0,62,0.00,,---,0.00,VWS V14.00,2013-01-24 01:21:00,
2013-01-23 19:22:00,4.2,-5.9,29.21,NW,315,0.0,0.0,62,0.00,,---,0.00,VWS V14.00,2013-01-24 01:22:00,
2013-01-23 19:23:00,4.2,-5.9,29.20,NNW,338,0.0,0.0,62,0.00,,---,0.00,VWS V14.00,2013-01-24 01:23:00,
2013-01-23 19:26:00,4.2,-5.9,29.21,NNW,338,0.0,0.0,62,0.00,,---,0.00,VWS V14.00,2013-01-24 01:26:00,
2013-01-23 19:28:00,4.2,-5.9,29.21,NW,315,0.0,0.0,62,0.00,,---,0.00,VWS V14.00,2013-01-24 01:28:00,
2013-01-23 19:30:00,4.1,-6.0,29.21,NW,315,0.0,0.0,62,0.00,,---,0.00,VWS V14.00,2013-01-24 01:30:00,
2013-01-23 19:33:00,3.9,-6.2,29.21,NW,315,0.0,0.0,62,0.00,,---,0.00,VWS V14.00,2013-01-24 01:33:00,
2013-01-23 19:38:00,3.9,-5.9,29.21,NW,315,0.0,0.0,63,0.00,,---,0.00,VWS V14.00,2013-01-24 01:38:00,
2013-01-23 19:43:00,3.7,-6.1,29.22,NW,315,0.0,0.0,63,0.00,,---,0.00,VWS V14.00,2013-01-24 01:43:00,
2013-01-23 19:48:00,3.5,-6.3,29.23,NNW,338,0.0,0.0,63,0.00,,---,0.00,VWS V14.00,2013-01-24 01:48:00,
2013-01-23 19:53:00,3.3,-6.4,29.23,NNW,338,0.0,0.0,63,0.00,,---,0.00,VWS V14.00,2013-01-24 01:53:00,
2013-01-23 19:58:00,3.3,-6.4,29.23,NNW,338,0.0,0.0,63,0.00,,---,0.00,VWS V14.00,2013-01-24 01:58:00,
2013-01-23 20:03:00,3.3,-6.4,29.23,North,0,0.0,0.0,63,0.00,,---,0.00,VWS V14.00,2013-01-24 02:03:00,
2013-01-23 20:08:00,3.0,-6.7,29.23,NW,315,0.0,0.0,63,0.00,,---,0.00,VWS V14.00,2013-01-24 02:08:00,
2013-01-23 20:11:00,3.0,-6.7,29.23,NW,315,0.0,0.0,63,0.00,,---,0.00,VWS V14.00,2013-01-24 02:11:00,
2013-01-23 20:13:00,3.0,-6.7,29.23,NNW,338,0.0,0.0,63,0.00,,---,0.00,VWS V14.00,2013-01-24 02:13:00,
2013-01-23 20:17:00,3.0,-6.7,29.23,NW,315,0.0,0.0,63,0.00,,---,0.00,VWS V14.00,2013-01-24 02:17:00,
2013-01-23 20:18:00,3.0,-6.7,29.23,NW,315,0.0,0.0,63,0.00,,---,0.00,VWS V14.00,2013-01-24 02:18:00,
2013-01-23 20:23:00,2.8,-6.9,29.23,NNW,338,0.0,0.0,63,0.00,,---,0.00,VWS V14.00,2013-01-24 02:23:00,
2013-01-23 20:26:00,2.8,-6.9,29.23,NNW,338,0.0,0.0,63,0.00,,---,0.00,VWS V14.00,2013-01-24 02:26:00,
2013-01-23 20:29:00,2.8,-6.9,29.24,NW,315,0.0,0.0,63,0.00,,---,0.00,VWS V14.00,2013-01-24 02:29:00,
2013-01-23 20:30:00,2.8,-6.6,29.24,NW,315,0.0,0.0,64,0.00,,---,0.00,VWS V14.00,2013-01-24 02:30:00,
2013-01-23 20:35:00,2.8,-6.6,29.24,NW,315,0.0,0.0,64,0.00,,---,0.00,VWS V14.00,2013-01-24 02:35:00,
2013-01-23 20:39:00,2.8,-6.6,29.24,NW,315,0.0,0.0,64,0.00,,---,0.00,VWS V14.00,2013-01-24 02:39:00,
2013-01-23 20:40:00,2.8,-6.6,29.24,NW,315,0.0,0.0,64,0.00,,---,0.00,VWS V14.00,2013-01-24 02:40:00,
2013-01-23 20:44:00,2.4,-7.0,29.24,NNW,338,0.0,0.0,64,0.00,,---,0.00,VWS V14.00,2013-01-24 02:44:00,
2013-01-23 20:45:00,2.4,-7.0,29.24,NNW,338,0.0,0.0,64,0.00,,---,0.00,VWS V14.00,2013-01-24 02:45:00,
2013-01-23 20:49:00,2.4,-7.0,29.25,NW,315,0.0,0.0,64,0.00,,---,0.00,VWS V14.00,2013-01-24 02:49:00,
2013-01-23 20:50:00,2.4,-7.0,29.25,NNW,338,0.0,0.0,64,0.00,,---,0.00,VWS V14.00,2013-01-24 02:50:00,
2013-01-23 20:54:00,2.3,-7.1,29.25,NNW,338,0.0,0.0,64,0.00,,---,0.00,VWS V14.00,2013-01-24 02:54:00,
2013-01-23 20:55:00,2.3,-7.1,29.25,NNW,338,0.0,0.0,64,0.00,,---,0.00,VWS V14.00,2013-01-24 02:55:00,
2013-01-23 20:59:00,2.3,-7.1,29.25,North,0,0.0,0.0,64,0.00,,---,0.00,VWS V14.00,2013-01-24 02:59:00,
2013-01-23 21:00:00,2.3,-7.1,29.26,North,0,0.0,0.0,64,0.00,,---,0.00,VWS V14.00,2013-01-24 03:00:00,
2013-01-23 21:05:00,2.3,-7.4,29.25,North,0,0.0,0.0,63,0.00,,---,0.00,VWS V14.00,2013-01-24 03:05:00,
2013-01-23 21:07:00,2.4,-7.3,29.25,NNE,22,0.0,0.0,63,0.00,,---,0.00,VWS V14.00,2013-01-24 03:07:00,
2013-01-23 21:10:00,2.4,-7.6,29.26,NW,315,0.0,0.0,62,0.00,,---,0.00,VWS V14.00,2013-01-24 03:10:00,
2013-01-23 21:12:00,2.4,-7.6,29.26,WNW,292,0.0,0.0,62,0.00,,---,0.00,VWS V14.00,2013-01-24 03:12:00,
2013-01-23 21:15:00,2.4,-7.6,29.26,NNW,338,0.0,0.0,62,0.00,,---,0.00,VWS V14.00,2013-01-24 03:15:00,
2013-01-23 21:16:00,2.3,-7.7,29.26,North,0,0.0,0.0,62,0.00,,---,0.00,VWS V14.00,2013-01-24 03:16:00,
2013-01-23 21:20:00,2.3,-7.7,29.27,NNE,22,0.0,0.0,62,0.00,,---,0.00,VWS V14.00,2013-01-24 03:20:00,
2013-01-23 21:24:00,2.1,-7.9,29.27,NE,45,0.0,0.0,62,0.00,,---,0.00,VWS V14.00,2013-01-24 03:24:00,
2013-01-23 21:26:00,2.1,-8.2,29.27,NNE,22,0.0,0.0,61,0.00,,---,0.00,VWS V14.00,2013-01-24 03:26:00,
2013-01-23 21:31:00,1.9,-8.8,29.28,North,0,0.0,0.0,60,0.00,,---,0.00,VWS V14.00,2013-01-24 03:31:00,
2013-01-23 21:33:00,1.7,-9.0,29.27,NNW,338,0.0,0.0,60,0.00,,---,0.00,VWS V14.00,2013-01-24 03:33:00,
2013-01-23 21:37:00,1.5,-9.5,29.28,NW,315,0.0,0.0,59,0.00,,---,0.00,VWS V14.00,2013-01-24 03:37:00,
2013-01-23 21:39:00,1.5,-9.5,29.28,NNE,22,0.0,0.0,59,0.00,,---,0.00,VWS V14.00,2013-01-24 03:39:00,
2013-01-23 21:42:00,1.4,-9.6,29.28,North,0,0.0,0.0,59,0.00,,---,0.00,VWS V14.00,2013-01-24 03:42:00,
2013-01-23 21:43:00,1.4,-9.6,29.28,NNW,338,0.0,0.0,59,0.00,,---,0.00,VWS V14.00,2013-01-24 03:43:00,
2013-01-23 21:44:00,1.4,-9.6,29.28,NE,45,0.0,0.0,59,0.00,,---,0.00,VWS V14.00,2013-01-24 03:44:00,
2013-01-23 21:49:00,1.2,-9.8,29.29,North,0,0.0,0.0,59,0.00,,---,0.00,VWS V14.00,2013-01-24 03:49:00,
2013-01-23 21:51:00,1.2,-9.8,29.29,NNE,22,0.0,0.0,59,0.00,,---,0.00,VWS V14.00,2013-01-24 03:51:00,
2013-01-23 21:54:00,1.2,-9.8,29.29,NNW,338,0.0,0.0,59,0.00,,---,0.00,VWS V14.00,2013-01-24 03:54:00,
2013-01-23 21:56:00,1.0,-10.3,29.29,NNW,338,0.0,0.0,58,0.00,,---,0.00,VWS V14.00,2013-01-24 03:56:00,
2013-01-23 22:00:00,0.8,-10.5,29.30,North,0,0.0,0.0,58,0.00,,---,0.00,VWS V14.00,2013-01-24 04:00:00,
2013-01-23 22:01:00,0.8,-10.5,29.30,NNE,22,0.0,0.0,58,0.00,,---,0.00,VWS V14.00,2013-01-24 04:01:00,
2013-01-23 22:06:00,0.6,-10.7,29.30,NNE,22,0.0,0.0,58,0.00,,---,0.00,VWS V14.00,2013-01-24 04:06:00,
2013-01-23 22:07:00,0.6,-10.7,29.30,NNE,22,0.0,0.0,58,0.00,,---,0.00,VWS V14.00,2013-01-24 04:07:00,
2013-01-23 22:10:00,0.6,-10.7,29.30,NNE,22,0.0,0.0,58,0.00,,---,0.00,VWS V14.00,2013-01-24 04:10:00,
2013-01-23 22:11:00,0.6,-10.7,29.30,North,0,0.0,0.0,58,0.00,,---,0.00,VWS V14.00,2013-01-24 04:11:00,
2013-01-23 22:12:00,0.5,-10.8,29.30,North,0,0.0,0.0,58,0.00,,---,0.00,VWS V14.00,2013-01-24 04:12:00,
2013-01-23 22:17:00,0.5,-10.4,29.30,North,0,0.0,0.0,59,0.00,,---,0.00,VWS V14.00,2013-01-24 04:17:00,
2013-01-23 22:18:00,0.3,-10.6,29.30,North,0,0.0,0.0,59,0.00,,---,0.00,VWS V14.00,2013-01-24 04:18:00,
2013-01-23 22:23:00,0.3,-10.6,29.30,NNW,338,0.0,0.0,59,0.00,,---,0.00,VWS V14.00,2013-01-24 04:23:00,
2013-01-23 22:27:00,0.3,-10.6,29.31,NNW,338,0.0,0.0,59,0.00,,---,0.00,VWS V14.00,2013-01-24 04:27:00,
2013-01-23 22:29:00,0.3,-10.6,29.31,North,0,0.0,0.0,59,0.00,,---,0.00,VWS V14.00,2013-01-24 04:29:00,
2013-01-23 22:32:00,0.1,-10.8,29.31,North,0,0.0,0.0,59,0.00,,---,0.00,VWS V14.00,2013-01-24 04:32:00,
2013-01-23 22:34:00,0.1,-10.8,29.31,North,0,0.0,0.0,59,0.00,,---,0.00,VWS V14.00,2013-01-24 04:34:00,
2013-01-23 22:37:00,0.1,-10.8,29.31,NNW,338,0.0,0.0,59,0.00,,---,0.00,VWS V14.00,2013-01-24 04:37:00,
2013-01-23 22:40:00,0.1,-10.8,29.31,NNW,338,0.0,0.0,59,0.00,,---,0.00,VWS V14.00,2013-01-24 04:40:00,
2013-01-23 22:43:00,-0.2,-11.1,29.31,NNW,338,0.0,0.0,59,0.00,,---,0.00,VWS V14.00,2013-01-24 04:43:00,
2013-01-23 22:45:00,-0.2,-10.8,29.31,North,0,0.0,0.0,60,0.00,,---,0.00,VWS V14.00,2013-01-24 04:45:00,
2013-01-23 22:48:00,-0.2,-10.8,29.31,North,0,0.0,0.0,60,0.00,,---,0.00,VWS V14.00,2013-01-24 04:48:00,
2013-01-23 22:50:00,-0.2,-10.8,29.31,North,0,0.0,0.0,60,0.00,,---,0.00,VWS V14.00,2013-01-24 04:50:00,
2013-01-23 22:51:00,-0.2,-10.8,29.31,NNW,338,0.0,0.0,60,0.00,,---,0.00,VWS V14.00,2013-01-24 04:51:00,
2013-01-23 22:56:00,-0.2,-10.8,29.31,NNW,338,0.0,0.0,60,0.00,,---,0.00,VWS V14.00,2013-01-24 04:56:00,
2013-01-23 22:57:00,-0.2,-10.8,29.32,North,0,0.0,0.0,60,0.00,,---,0.00,VWS V14.00,2013-01-24 04:57:00,
2013-01-23 23:00:00,-0.5,-11.1,29.32,North,0,0.0,0.0,60,0.00,,---,0.00,VWS V14.00,2013-01-24 05:00:00,
2013-01-23 23:01:00,-0.5,-11.1,29.32,NNE,22,0.0,0.0,60,0.00,,---,0.00,VWS V14.00,2013-01-24 05:01:00,
2013-01-23 23:03:00,-0.5,-11.1,29.32,NNW,338,0.0,0.0,60,0.00,,---,0.00,VWS V14.00,2013-01-24 05:03:00,
2013-01-23 23:05:00,-0.5,-11.1,29.32,North,0,0.0,0.0,60,0.00,,---,0.00,VWS V14.00,2013-01-24 05:05:00,
2013-01-23 23:06:00,-0.5,-11.1,29.32,North,0,0.0,0.0,60,0.00,,---,0.00,VWS V14.00,2013-01-24 05:06:00,
2013-01-23 23:09:00,-0.5,-11.1,29.33,North,0,0.0,0.0,60,0.00,,---,0.00,VWS V14.00,2013-01-24 05:09:00,
2013-01-23 23:11:00,-0.5,-11.1,29.33,North,0,0.0,0.0,60,0.00,,---,0.00,VWS V14.00,2013-01-24 05:11:00,
2013-01-23 23:12:00,-0.5,-11.1,29.33,NNW,338,0.0,0.0,60,0.00,,---,0.00,VWS V14.00,2013-01-24 05:12:00,
2013-01-23 23:17:00,-0.5,-11.1,29.33,North,0,0.0,0.0,60,0.00,,---,0.00,VWS V14.00,2013-01-24 05:17:00,
2013-01-23 23:18:00,-0.7,-11.2,29.33,WNW,292,0.0,0.0,60,0.00,,---,0.00,VWS V14.00,2013-01-24 05:18:00,
2013-01-23 23:22:00,-0.7,-11.2,29.34,North,0,0.0,0.0,60,0.00,,---,0.00,VWS V14.00,2013-01-24 05:22:00,
2013-01-23 23:23:00,-0.7,-11.2,29.34,North,0,0.0,0.0,60,0.00,,---,0.00,VWS V14.00,2013-01-24 05:23:00,
2013-01-23 23:25:00,-0.7,-10.9,29.34,NNE,22,0.0,0.0,61,0.00,,---,0.00,VWS V14.00,2013-01-24 05:25:00,
2013-01-23 23:30:00,-0.7,-10.9,29.34,NNE,22,0.0,0.0,61,0.00,,---,0.00,VWS V14.00,2013-01-24 05:30:00,
2013-01-23 23:31:00,-0.7,-10.9,29.34,North,0,0.0,0.0,61,0.00,,---,0.00,VWS V14.00,2013-01-24 05:31:00,
2013-01-23 23:34:00,-0.7,-10.9,29.34,North,0,0.0,0.0,61,0.00,,---,0.00,VWS V14.00,2013-01-24 05:34:00,
2013-01-23 23:35:00,-0.7,-10.9,29.35,NNE,22,0.0,0.0,61,0.00,,---,0.00,VWS V14.00,2013-01-24 05:35:00,
2013-01-23 23:38:00,-0.7,-10.9,29.35,North,0,0.0,0.0,61,0.00,,---,0.00,VWS V14.00,2013-01-24 05:38:00,
2013-01-23 23:40:00,-0.7,-11.2,29.36,North,0,0.0,0.0,60,0.00,,---,0.00,VWS V14.00,2013-01-24 05:40:00,
2013-01-23 23:41:00,-0.5,-11.1,29.36,NNW,338,0.0,0.0,60,0.00,,---,0.00,VWS V14.00,2013-01-24 05:41:00,
2013-01-23 23:46:00,-0.7,-11.2,29.36,NNW,338,0.0,0.0,60,0.00,,---,0.00,VWS V14.00,2013-01-24 05:46:00,
2013-01-23 23:48:00,-0.7,-11.2,29.36,NNE,22,0.0,0.0,60,0.00,,---,0.00,VWS V14.00,2013-01-24 05:48:00,
2013-01-23 23:51:00,-0.7,-11.6,29.36,NNW,338,0.0,0.0,59,0.00,,---,0.00,VWS V14.00,2013-01-24 05:51:00,
2013-01-23 23:53:00,-0.7,-11.6,29.36,NNE,22,0.0,0.0,59,0.00,,---,0.00,VWS V14.00,2013-01-24 05:53:00,
2013-01-23 23:55:00,-1.1,-12.0,29.36,North,0,0.0,0.0,59,0.00,,---,0.00,VWS V14.00,2013-01-24 05:55:00,
2013-01-23 23:57:00,-1.1,-12.0,29.36,North,0,0.0,0.0,59,0.00,,---,0.00,VWS V14.00,2013-01-24 05:57:00,
2013-01-23 23:58:00,-1.1,-12.0,29.36,NE,45,0.0,0.0,59,0.00,,---,0.00,VWS V14.00,2013-01-24 05:58:00,